FW7316 Weather Reports


Display with metric or nautical units.
time (UTC)temp
F
wind
direction
speed
MPH
gust
MPH
rain 1hr
in
rain 24hr
in
rain mn
in
humidity
%
barometer
mb
20260510090659 69 266 4.0 7.0 0.00 0.00 0.00 78 1011.8
20260510090602 69 279 2.0 7.0 0.00 0.00 0.00 78 1011.8
20260510090359 68 283 5.0 7.0 0.00 0.00 0.00 78 1011.8
20260510090200 68 268 3.0 6.0 0.00 0.00 0.00 78 1011.8
20260510090059 68 326 5.0 6.0 0.00 0.00 0.00 78 1011.8
20260510090007 68 261 4.0 6.0 0.00 0.00 0.00 78 1011.8
20260510085800 68 263 0.0 5.0 0.00 0.00 0.00 77 1011.8
20260510085703 68 263 3.0 5.0 0.00 0.00 0.00 76 1011.9
20260510085500 68 263 2.0 5.0 0.00 0.00 0.00 77 1011.9
20260510085402 68 280 3.0 4.0 0.00 0.00 0.00 78 1011.9
20260510085300 68 292 3.0 5.0 0.00 0.00 0.00 78 1011.9
20260510085159 68 278 0.0 5.0 0.00 0.00 0.00 78 1011.9
20260510085102 68 278 1.0 5.0 0.00 0.00 0.00 78 1011.8
20260510084900 68 344 3.0 5.0 0.00 0.00 0.00 79 1011.7
20260510084802 68 344 1.0 5.0 0.00 0.00 0.00 79 1011.8
20260510084700 68 344 1.0 5.0 0.00 0.00 0.00 80 1011.8
20260510084600 68 344 2.0 5.0 0.00 0.00 0.00 81 1011.8
20260510084359 67 330 3.0 5.0 0.00 0.00 0.00 81 1011.7
20260510084259 67 315 4.0 5.0 0.00 0.00 0.00 81 1011.8
20260510084204 67 312 3.0 5.0 0.00 0.00 0.00 80 1011.8
20260510084059 67 296 3.0 5.0 0.00 0.00 0.00 80 1011.8
20260510084000 67 253 3.0 5.0 0.00 0.00 0.00 80 1011.7
20260510083902 66 253 2.0 5.0 0.00 0.00 0.00 80 1011.8
20260510083800 66 253 3.0 5.0 0.00 0.00 0.00 80 1011.8
20260510083700 66 279 0.0 5.0 0.00 0.00 0.00 81 1011.8
20260510083602 66 279 2.0 5.0 0.00 0.00 0.00 81 1011.8
20260510083359 66 265 4.0 4.0 0.00 0.00 0.00 83 1011.8
20260510083302 66 286 2.0 4.0 0.00 0.00 0.00 82 1011.8
20260510083159 66 286 1.0 5.0 0.00 0.00 0.00 82 1011.8
20260510083100 65 286 2.0 5.0 0.00 0.00 0.00 82 1011.8
20260510083004 65 286 2.0 5.0 0.00 0.00 0.00 83 1011.8
20260510082900 65 286 1.0 5.0 0.00 0.00 0.00 83 1011.8
20260510082759 65 286 3.0 5.0 0.00 0.00 0.00 83 1011.9
20260510082702 65 286 3.0 5.0 0.00 0.00 0.00 83 1011.8
20260510082600 65 338 3.0 5.0 0.00 0.00 0.00 83 1011.8
20260510082500 65 293 3.0 5.0 0.00 0.00 0.00 83 1011.8
20260510082300 65 293 4.0 5.0 0.00 0.00 0.00 83 1011.8
20260510082200 64 277 2.0 3.0 0.00 0.00 0.00 83 1011.8
20260510082102 64 277 1.0 3.0 0.00 0.00 0.00 84 1011.9
20260510081903 64 277 1.0 4.0 0.00 0.00 0.00 83 1011.9
20260510081805 64 277 0.0 4.0 0.00 0.00 0.00 83 1011.9
20260510081700 64 277 2.0 4.0 0.00 0.00 0.00 83 1011.9
20260510081611 64 261 2.0 4.0 0.00 0.00 0.00 84 1011.9
20260510081505 64 261 2.0 4.0 0.00 0.00 0.00 84 1011.9
20260510081400 64 261 1.0 4.0 0.00 0.00 0.00 84 1011.9
20260510081202 64 261 2.0 4.0 0.00 0.00 0.00 84 1012.0
20260510081100 64 261 2.0 4.0 0.00 0.00 0.00 84 1011.9
20260510081001 64 306 2.0 3.0 0.00 0.00 0.00 84 1012.0
20260510080902 64 306 1.0 3.0 0.00 0.00 0.00 84 1012.0
20260510080759 64 306 2.0 3.0 0.00 0.00 0.00 84 1012.0
20260510080700 64 306 2.0 3.0 0.00 0.00 0.00 84 1012.1
20260510080603 64 306 2.0 3.0 0.00 0.00 0.00 84 1012.1
20260510080500 63 259 2.0 3.0 0.00 0.00 0.00 85 1012.1
20260510080400 63 40 2.0 3.0 0.00 0.00 0.00 84 1012.1
20260510080302 63 40 2.0 3.0 0.00 0.00 0.00 84 1012.1
20260510080200 63 40 2.0 3.0 0.00 0.00 0.00 84 1012.1
20260510080006 63 40 1.0 2.0 0.00 0.00 0.00 86 1012.1
20260510075859 63 40 0.0 2.0 0.00 0.00 0.00 86 1012.1
20260510075800 63 40 0.0 2.0 0.00 0.00 0.00 87 1012.1
20260510075600 63 40 0.0 2.0 0.00 0.00 0.00 87 1012.1
20260510075402 63 40 2.0 2.0 0.00 0.00 0.00 87 1012.2
20260510075259 63 40 1.0 2.0 0.00 0.00 0.00 87 1012.1
20260510075159 63 40 1.0 2.0 0.00 0.00 0.00 87 1012.1
20260510075103 62 40 1.0 2.0 0.00 0.00 0.00 88 1012.1
20260510075000 62 40 1.0 2.0 0.00 0.00 0.00 88 1012.1
20260510074859 62 40 0.0 2.0 0.00 0.00 0.00 88 1012.1
20260510074804 62 40 1.0 2.0 0.00 0.00 0.00 88 1012.1
20260510074701 62 40 0.0 2.0 0.00 0.00 0.00 89 1012.1
20260510074600 62 40 0.0 2.0 0.00 0.00 0.00 89 1012.2
20260510074502 62 40 0.0 2.0 0.00 0.00 0.00 89 1012.1
20260510074400 62 40 0.0 2.0 0.00 0.00 0.00 89 1012.1
20260510074300 62 40 0.0 2.0 0.00 0.00 0.00 89 1012.1
20260510074204 62 40 0.0 2.0 0.00 0.00 0.00 90 1012.1
20260510074059 62 40 0.0 3.0 0.00 0.00 0.00 90 1012.1
20260510073800 62 40 1.0 3.0 0.00 0.00 0.00 90 1012.1
20260510073602 61 40 1.0 3.0 0.00 0.00 0.00 90 1012.1
20260510073500 61 40 0.0 3.0 0.00 0.00 0.00 90 1012.1
20260510073400 61 40 1.0 3.0 0.00 0.00 0.00 90 1012.1
20260510073159 61 40 1.0 3.0 0.00 0.00 0.00 90 1012.0
20260510073059 61 40 2.0 4.0 0.00 0.00 0.00 90 1012.0
20260510073004 61 40 2.0 4.0 0.00 0.00 0.00 90 1012.0
20260510072900 61 40 3.0 4.0 0.00 0.00 0.00 90 1012.1
20260510072759 61 40 3.0 4.0 0.00 0.00 0.00 91 1012.1
20260510072702 61 40 2.0 4.0 0.00 0.00 0.00 91 1012.1
20260510072459 61 40 2.0 4.0 0.00 0.00 0.00 91 1012.1
20260510072403 61 40 2.0 4.0 0.00 0.00 0.00 91 1012.1
20260510072259 61 40 2.0 4.0 0.00 0.00 0.00 91 1012.1
20260510072159 61 40 3.0 4.0 0.00 0.00 0.00 91 1012.1
20260510072103 61 40 2.0 4.0 0.00 0.00 0.00 91 1012.1
20260510071802 61 40 4.0 4.0 0.00 0.00 0.00 91 1012.1
20260510071659 61 40 4.0 6.0 0.00 0.00 0.00 91 1012.1
20260510071600 61 40 3.0 6.0 0.00 0.00 0.00 91 1012.1
20260510071518 61 40 2.0 6.0 0.00 0.00 0.00 91 1012.1
20260510071259 61 40 1.0 6.0 0.00 0.00 0.00 91 1012.1
20260510071000 61 40 3.0 6.0 0.00 0.00 0.00 91 1012.1
20260510070859 61 40 4.0 6.0 0.00 0.00 0.00 91 1012.1
20260510070802 61 40 4.0 6.0 0.00 0.00 0.00 91 1012.1
20260510070559 61 36 4.0 6.0 0.00 0.00 0.00 91 1012.0
20260510070502 61 29 3.0 6.0 0.00 0.00 0.00 91 1012.0
20260510070359 61 33 5.0 5.0 0.00 0.00 0.00 91 1012.1
20260510070202 61 43 5.0 5.0 0.00 0.00 0.00 91 1012.1
20260510070059 61 26 4.0 4.0 0.00 0.00 0.00 91 1012.1
20260510070004 61 360 3.0 4.0 0.00 0.00 0.00 91 1012.1
20260510065902 61 360 2.0 4.0 0.00 0.00 0.00 91 1012.1
20260510065759 61 360 2.0 3.0 0.00 0.00 0.00 91 1012.1
20260510065700 61 360 3.0 3.0 0.00 0.00 0.00 91 1012.2
20260510065459 61 360 2.0 3.0 0.00 0.00 0.00 91 1012.2
20260510065359 61 360 3.0 3.0 0.00 0.00 0.00 91 1012.1
20260510065306 61 360 2.0 3.0 0.00 0.00 0.00 91 1012.1
20260510065201 61 360 1.0 3.0 0.00 0.00 0.00 91 1012.2
20260510065100 61 319 2.0 3.0 0.00 0.00 0.00 91 1012.1
20260510065004 61 319 2.0 3.0 0.00 0.00 0.00 91 1012.1
20260510064859 61 319 2.0 3.0 0.00 0.00 0.00 91 1012.2
20260510064759 61 319 2.0 3.0 0.00 0.00 0.00 91 1012.1
20260510064702 61 319 1.0 3.0 0.00 0.00 0.00 91 1012.2
20260510064559 61 319 3.0 3.0 0.00 0.00 0.00 91 1012.2
20260510064501 61 319 2.0 3.0 0.00 0.00 0.00 91 1012.2
20260510064402 61 21 1.0 3.0 0.00 0.00 0.00 92 1012.2
20260510064259 61 21 2.0 3.0 0.00 0.00 0.00 92 1012.1
20260510064103 61 55 3.0 3.0 0.00 0.00 0.00 92 1012.2
20260510063859 61 55 2.0 3.0 0.00 0.00 0.00 92 1012.1
20260510063802 61 55 2.0 3.0 0.00 0.00 0.00 92 1012.1
20260510063659 61 55 3.0 3.0 0.00 0.00 0.00 92 1012.1
20260510063600 61 55 2.0 2.0 0.00 0.00 0.00 92 1012.0
20260510063405 61 55 1.0 2.0 0.00 0.00 0.00 92 1012.1
20260510063259 61 55 2.0 2.0 0.00 0.00 0.00 92 1012.1
20260510063202 61 55 2.0 2.0 0.00 0.00 0.00 92 1012.1
20260510063059 61 55 1.0 1.0 0.00 0.00 0.00 92 1012.1
20260510063000 61 55 0.0 1.0 0.00 0.00 0.00 93 1012.1
20260510062903 61 55 0.0 1.0 0.00 0.00 0.00 93 1012.1
20260510062800 61 55 0.0 1.0 0.00 0.00 0.00 93 1012.0
20260510062659 60 55 0.0 1.0 0.00 0.00 0.00 93 1012.0
20260510062500 60 55 1.0 1.0 0.00 0.00 0.00 93 1012.0
20260510062359 60 55 0.0 2.0 0.00 0.00 0.00 93 1012.0
20260510062159 60 55 0.0 2.0 0.00 0.00 0.00 93 1011.9
20260510062059 60 55 0.0 2.0 0.00 0.00 0.00 93 1012.0
20260510062003 60 55 1.0 2.0 0.00 0.00 0.00 93 1011.9
20260510061759 60 55 0.0 2.0 0.00 0.00 0.00 93 1011.9
20260510061702 60 55 1.0 2.0 0.00 0.00 0.00 93 1011.9
20260510061559 60 55 1.0 2.0 0.00 0.00 0.00 93 1011.9
20260510061500 60 55 0.0 2.0 0.00 0.00 0.00 93 1011.9
20260510061402 60 55 1.0 2.0 0.00 0.00 0.00 94 1011.9
20260510061259 60 55 1.0 2.0 0.00 0.00 0.00 94 1011.9
20260510061200 60 55 0.0 2.0 0.00 0.00 0.00 94 1011.9
20260510061102 60 55 0.0 2.0 0.00 0.00 0.00 94 1011.9
20260510061000 60 55 0.0 2.0 0.00 0.00 0.00 94 1011.9
20260510060902 60 275 0.0 2.0 0.00 0.00 0.00 94 1011.9
20260510060805 60 275 0.0 2.0 0.00 0.00 0.00 94 1011.9
20260510060600 60 275 2.0 2.0 0.00 0.00 0.00 94 1011.9
20260510060505 60 275 1.0 2.0 0.00 0.00 0.00 94 1011.9
20260510060400 59 275 1.0 2.0 0.00 0.00 0.00 94 1011.9
20260510060204 59 275 1.0 2.0 0.00 0.00 0.00 94 1011.9
20260510060006 59 275 0.0 1.0 0.00 0.00 0.00 94 1011.9
20260510055759 59 275 0.0 1.0 0.00 0.00 0.00 94 1012.0
20260510055659 59 275 0.0 1.0 0.00 0.00 0.00 94 1012.0
20260510055604 59 275 1.0 1.0 0.00 0.00 0.00 94 1011.9
20260510055306 59 275 1.0 1.0 0.00 0.00 0.00 94 1011.9
20260510055159 59 275 0.0 1.0 0.00 0.00 0.00 94 1011.9
20260510055100 59 275 1.0 1.0 0.00 0.00 0.00 94 1011.9
20260510055003 59 275 0.0 1.0 0.00 0.00 0.00 94 1011.9
20260510054903 59 275 0.0 2.0 0.00 0.00 0.00 94 1011.9
20260510054602 58 275 0.0 3.0 0.00 0.00 0.00 95 1011.9
20260510054500 58 275 0.0 3.0 0.00 0.00 0.00 95 1011.9
20260510054259 58 275 1.0 3.0 0.00 0.00 0.00 95 1012.0
20260510054200 58 275 0.0 3.0 0.00 0.00 0.00 95 1011.9
20260510054103 58 275 1.0 3.0 0.00 0.00 0.00 95 1012.0
20260510053959 58 275 1.0 3.0 0.00 0.00 0.00 95 1012.0
20260510053900 58 275 2.0 3.0 0.00 0.00 0.00 95 1012.0
20260510053659 58 275 2.0 3.0 0.00 0.00 0.00 95 1011.9
20260510053559 58 275 2.0 2.0 0.00 0.00 0.00 94 1011.9
20260510053502 58 275 0.0 3.0 0.00 0.00 0.00 94 1012.0
20260510053400 58 275 1.0 3.0 0.00 0.00 0.00 94 1011.9
20260510053259 58 275 0.0 3.0 0.00 0.00 0.00 95 1012.0
20260510053202 58 275 1.0 3.0 0.00 0.00 0.00 95 1012.0
20260510053059 58 275 0.0 3.0 0.00 0.00 0.00 95 1012.0
20260510053000 58 275 1.0 3.0 0.00 0.00 0.00 95 1012.0
20260510052902 58 275 1.0 3.0 0.00 0.00 0.00 95 1012.0
20260510052800 58 275 1.0 3.0 0.00 0.00 0.00 95 1012.1
20260510052659 58 275 1.0 4.0 0.00 0.00 0.00 95 1012.0
20260510052602 58 275 2.0 5.0 0.00 0.00 0.00 95 1012.1
20260510052500 58 275 2.0 5.0 0.00 0.00 0.00 95 1012.1
20260510052400 58 275 2.0 5.0 0.00 0.00 0.00 95 1012.1
20260510052306 57 275 1.0 5.0 0.00 0.00 0.00 95 1012.0
20260510052200 57 275 2.0 5.0 0.00 0.00 0.00 95 1012.1
20260510052100 57 275 2.0 5.0 0.00 0.00 0.00 95 1012.0
20260510052005 57 275 2.0 5.0 0.00 0.00 0.00 95 1012.0
20260510051859 57 275 1.0 5.0 0.00 0.00 0.00 95 1012.1
20260510051802 57 275 2.0 5.0 0.00 0.00 0.00 95 1012.1
20260510051702 57 275 2.0 5.0 0.00 0.00 0.00 95 1012.2
20260510051500 57 265 4.0 4.0 0.00 0.00 0.00 95 1012.2
20260510051404 57 243 3.0 4.0 0.00 0.00 0.00 95 1012.2
20260510051302 57 243 2.0 4.0 0.00 0.00 0.00 95 1012.2
20260510051159 57 243 2.0 4.0 0.00 0.00 0.00 95 1012.3
20260510051102 57 243 2.0 4.0 0.00 0.00 0.00 95 1012.3
20260510051000 57 231 1.0 4.0 0.00 0.00 0.00 95 1012.3
20260510050859 57 231 3.0 4.0 0.00 0.00 0.00 95 1012.3
20260510050802 57 231 2.0 4.0 0.00 0.00 0.00 95 1012.2
20260510050506 57 231 3.0 4.0 0.00 0.00 0.00 95 1012.2
20260510050400 57 288 3.0 3.0 0.00 0.00 0.00 95 1012.1
20260510050202 57 288 1.0 3.0 0.00 0.00 0.00 95 1012.1
20260510050059 56 288 2.0 3.0 0.00 0.00 0.00 95 1012.1
20260510045759 56 120 2.0 2.0 0.00 0.00 0.00 95 1012.1
20260510045659 56 120 2.0 2.0 0.00 0.00 0.00 95 1012.1
20260510045602 56 120 1.0 2.0 0.00 0.00 0.00 95 1012.1
20260510045459 56 120 1.0 3.0 0.00 0.00 0.00 95 1012.1
20260510045359 56 120 0.0 3.0 0.00 0.00 0.00 95 1012.1
20260510045305 56 120 1.0 3.0 0.00 0.00 0.00 95 1012.1
20260510045159 56 120 0.0 3.0 0.00 0.00 0.00 95 1012.1
20260510045059 56 120 0.0 3.0 0.00 0.00 0.00 95 1012.1
20260510045003 56 120 0.0 3.0 0.00 0.00 0.00 95 1012.0
20260510044859 56 120 1.0 3.0 0.00 0.00 0.00 95 1012.1
20260510044759 56 120 1.0 3.0 0.00 0.00 0.00 95 1012.1
20260510044702 56 120 2.0 3.0 0.00 0.00 0.00 95 1012.1
20260510044500 56 134 2.0 3.0 0.00 0.00 0.00 95 1012.1
20260510044404 56 164 1.0 4.0 0.00 0.00 0.00 95 1012.1
20260510044259 56 164 1.0 4.0 0.00 0.00 0.00 95 1012.2
20260510044159 56 164 1.0 4.0 0.00 0.00 0.00 95 1012.2
20260510044001 56 164 0.0 4.0 0.00 0.00 0.00 95 1012.3
20260510043859 56 164 0.0 4.0 0.00 0.00 0.00 95 1012.3
20260510043802 56 164 0.0 4.0 0.00 0.00 0.00 95 1012.4
20260510043559 56 164 2.0 4.0 0.00 0.00 0.00 95 1012.5
20260510043502 56 164 1.0 4.0 0.00 0.00 0.00 95 1012.5
20260510043359 56 241 3.0 3.0 0.00 0.00 0.00 95 1012.5
20260510043259 56 241 2.0 3.0 0.00 0.00 0.00 95 1012.5
20260510043059 56 241 1.0 3.0 0.00 0.00 0.00 95 1012.3
20260510043001 56 241 2.0 3.0 0.00 0.00 0.00 95 1012.3
20260510042902 56 241 1.0 3.0 0.00 0.00 0.00 95 1012.3
20260510042603 56 241 3.0 4.0 0.00 0.00 0.00 95 1012.4
20260510042459 56 241 3.0 4.0 0.00 0.00 0.00 95 1012.4
20260510042305 56 333 0.0 4.0 0.00 0.00 0.00 95 1012.3
20260510042059 56 333 0.0 4.0 0.00 0.00 0.00 95 1012.4
20260510042003 56 333 1.0 4.0 0.00 0.00 0.00 95 1012.4
20260510041859 56 332 2.0 4.0 0.00 0.00 0.00 95 1012.4
20260510041559 56 332 4.0 4.0 0.00 0.00 0.00 94 1012.4
20260510041459 56 71 3.0 4.0 0.00 0.00 0.00 94 1012.5
20260510041402 56 71 2.0 4.0 0.00 0.00 0.00 94 1012.5
20260510041259 56 71 0.0 4.0 0.00 0.00 0.00 94 1012.5
20260510041159 56 71 0.0 5.0 0.00 0.00 0.00 94 1012.5
20260510041103 56 71 1.0 5.0 0.00 0.00 0.00 94 1012.6
20260510041000 56 71 3.0 5.0 0.00 0.00 0.00 95 1012.6
20260510040900 56 72 0.0 5.0 0.00 0.00 0.00 95 1012.6
20260510040802 56 61 3.0 5.0 0.00 0.00 0.00 95 1012.5
20260510040659 56 60 1.0 5.0 0.00 0.00 0.00 95 1012.6
20260510040600 56 60 3.0 5.0 0.00 0.00 0.00 95 1012.6
20260510040502 56 60 2.0 5.0 0.00 0.00 0.00 94 1012.6
20260510040359 56 59 2.0 5.0 0.00 0.00 0.00 95 1012.6
20260510040300 56 59 4.0 5.0 0.00 0.00 0.00 94 1012.6
20260510040202 56 47 4.0 4.0 0.00 0.00 0.00 94 1012.6
20260510040003 56 178 3.0 3.0 0.00 0.00 0.00 95 1012.6
20260510035902 56 178 1.0 2.0 0.00 0.01 0.00 95 1012.7
20260510035759 56 178 1.0 2.0 0.00 0.01 0.00 95 1012.7
20260510035659 56 178 0.0 2.0 0.00 0.01 0.00 95 1012.7
20260510035602 56 178 0.0 2.0 0.00 0.01 0.00 95 1012.8
20260510035459 56 178 1.0 2.0 0.00 0.01 0.00 95 1012.7
20260510035359 56 178 1.0 2.0 0.00 0.01 0.00 95 1012.8
20260510035306 56 178 1.0 2.0 0.00 0.01 0.00 95 1012.7
20260510035159 56 178 0.0 2.0 0.00 0.01 0.00 95 1012.7
20260510035059 56 178 0.0 2.0 0.00 0.01 0.00 95 1012.7
20260510035002 56 178 1.0 2.0 0.00 0.01 0.00 95 1012.8
20260510034859 56 178 0.0 2.0 0.00 0.01 0.00 95 1012.8
20260510034759 56 178 1.0 2.0 0.00 0.01 0.00 95 1012.8
20260510034702 56 178 1.0 3.0 0.00 0.01 0.00 95 1012.8
20260510034600 56 178 1.0 3.0 0.00 0.01 0.00 95 1013.0
20260510034459 56 178 0.0 3.0 0.00 0.01 0.00 95 1012.9
20260510034402 56 178 0.0 3.0 0.00 0.01 0.00 95 1013.0
20260510034259 56 178 0.0 3.0 0.00 0.01 0.00 95 1013.0
20260510034159 56 178 1.0 3.0 0.00 0.01 0.00 95 1012.9
20260510033859 56 178 0.0 3.0 0.00 0.01 0.00 95 1012.8
20260510033802 56 178 1.0 4.0 0.00 0.01 0.00 95 1012.9
20260510033659 56 178 2.0 4.0 0.00 0.01 0.00 95 1012.9
20260510033600 56 178 2.0 4.0 0.00 0.01 0.00 95 1012.9
20260510033502 56 178 3.0 4.0 0.00 0.01 0.00 95 1012.9
20260510033359 56 178 2.0 4.0 0.00 0.01 0.00 95 1012.9
20260510033259 56 178 2.0 4.0 0.00 0.01 0.00 95 1012.8
20260510033202 56 178 0.0 6.0 0.00 0.01 0.00 95 1012.8
20260510033059 56 178 2.0 6.0 0.00 0.01 0.00 95 1012.9
20260510033000 56 178 3.0 6.0 0.00 0.01 0.00 95 1012.8
20260510032901 56 178 3.0 6.0 0.00 0.01 0.00 95 1012.9
20260510032759 56 178 3.0 6.0 0.00 0.01 0.00 95 1012.9
20260510032602 55 178 1.0 6.0 0.00 0.01 0.00 95 1013.0
20260510032500 55 178 0.0 6.0 0.00 0.01 0.00 95 1013.0
20260510032359 55 178 2.0 6.0 0.00 0.01 0.00 95 1013.1
20260510032305 56 200 4.0 6.0 0.00 0.01 0.00 95 1013.0
20260510032159 55 201 5.0 5.0 0.00 0.01 0.00 95 1013.0
20260510032059 55 235 3.0 4.0 0.00 0.01 0.00 95 1012.9
20260510032002 55 355 1.0 4.0 0.00 0.01 0.00 95 1012.7
20260510031859 55 355 1.0 4.0 0.00 0.01 0.00 95 1012.6
20260510031759 55 355 1.0 4.0 0.00 0.01 0.00 95 1012.6
20260510031702 55 355 3.0 4.0 0.00 0.01 0.00 95 1012.6
20260510031559 55 355 4.0 4.0 0.00 0.01 0.00 95 1012.6
20260510031500 55 5 2.0 4.0 0.00 0.01 0.00 95 1012.6
20260510031402 55 5 3.0 4.0 0.00 0.01 0.00 95 1012.7
20260510031259 55 193 3.0 3.0 0.00 0.01 0.00 95 1012.7
20260510031159 55 193 2.0 3.0 0.00 0.01 0.00 95 1012.7
20260510031103 55 193 2.0 3.0 0.00 0.01 0.00 95 1012.8
20260510030859 55 193 1.0 2.0 0.00 0.01 0.00 95 1012.8
20260510030802 55 193 1.0 2.0 0.00 0.01 0.00 95 1012.8
20260510030503 55 193 2.0 2.0 0.00 0.01 0.00 95 1012.9
20260510030359 55 193 1.0 2.0 0.00 0.01 0.00 95 1012.9
20260510030259 55 193 1.0 2.0 0.00 0.01 0.00 95 1012.9
20260510030059 55 193 1.0 2.0 0.00 0.01 0.00 95 1012.9
20260510030005 55 193 1.0 1.0 0.00 0.01 0.00 95 1012.9
20260510025902 55 193 0.0 1.0 0.00 0.01 0.00 95 1012.9
20260510025759 55 193 0.0 3.0 0.00 0.01 0.00 95 1012.8
20260510025602 55 193 0.0 3.0 0.00 0.01 0.00 95 1012.9
20260510025501 55 193 1.0 3.0 0.00 0.01 0.00 95 1012.8
20260510025305 55 193 0.0 3.0 0.00 0.01 0.00 95 1012.8
20260510025159 55 193 0.0 3.0 0.00 0.01 0.00 95 1012.8
20260510025059 55 193 0.0 3.0 0.00 0.01 0.00 95 1012.7
20260510025004 55 193 0.0 3.0 0.00 0.01 0.00 95 1012.7
20260510024859 55 193 1.0 3.0 0.00 0.01 0.00 95 1012.8
20260510024759 55 193 2.0 3.0 0.00 0.01 0.00 95 1012.8
20260510024702 55 193 2.0 3.0 0.00 0.01 0.00 95 1012.8
20260510024559 55 193 0.0 3.0 0.00 0.01 0.00 95 1012.7
20260510024459 55 193 0.0 3.0 0.00 0.01 0.00 95 1012.7
20260510024402 55 193 0.0 3.0 0.00 0.01 0.00 95 1012.7
20260510024300 54 193 1.0 3.0 0.00 0.01 0.00 95 1012.7
20260510024159 54 193 0.0 3.0 0.00 0.01 0.00 95 1012.6
20260510024101 54 193 1.0 3.0 0.00 0.01 0.00 95 1012.6
20260510023859 54 193 1.0 3.0 0.00 0.01 0.00 95 1012.6
20260510023802 54 193 2.0 3.0 0.00 0.01 0.00 95 1012.6
20260510023559 54 193 2.0 3.0 0.00 0.01 0.00 95 1012.7
20260510023502 54 193 2.0 3.0 0.00 0.01 0.00 95 1012.7
20260510023359 54 193 1.0 3.0 0.00 0.01 0.00 95 1012.7
20260510023259 54 193 1.0 3.0 0.00 0.01 0.00 95 1012.7
20260510023201 54 193 1.0 3.0 0.00 0.01 0.00 95 1012.8
20260510023059 54 193 1.0 3.0 0.00 0.01 0.00 95 1012.8
20260510022959 54 193 0.0 3.0 0.00 0.01 0.00 95 1012.8
20260510022901 54 193 0.0 3.0 0.00 0.01 0.00 95 1012.9
20260510022700 54 193 2.0 3.0 0.00 0.01 0.00 95 1012.8
20260510022602 54 193 3.0 3.0 0.00 0.01 0.00 95 1012.8
20260510022459 54 193 1.0 2.0 0.00 0.01 0.00 95 1012.8
20260510022306 54 193 0.0 2.0 0.00 0.01 0.00 95 1012.8
20260510022159 54 193 0.0 2.0 0.00 0.01 0.00 95 1012.8
20260510022059 54 193 0.0 2.0 0.00 0.01 0.00 95 1012.7
20260510022003 54 193 0.0 3.0 0.00 0.01 0.00 95 1012.7
20260510021759 54 193 0.0 3.0 0.00 0.01 0.00 95 1012.7
20260510021702 54 193 1.0 3.0 0.00 0.01 0.00 95 1012.7
20260510021559 54 193 1.0 3.0 0.00 0.01 0.00 95 1012.7
20260510021459 53 193 2.0 3.0 0.00 0.01 0.00 94 1012.8
20260510021402 53 193 1.0 3.0 0.00 0.01 0.00 94 1012.8
20260510021159 53 193 1.0 3.0 0.00 0.01 0.00 94 1012.9
20260510021102 53 193 1.0 3.0 0.00 0.01 0.00 94 1012.9
20260510021000 53 193 3.0 3.0 0.00 0.01 0.00 94 1012.8
20260510020859 53 193 2.0 3.0 0.00 0.01 0.00 94 1012.9
20260510020802 53 193 3.0 3.0 0.00 0.01 0.00 94 1012.9
20260510020601 53 193 2.0 3.0 0.00 0.01 0.00 94 1012.9
20260510020502 53 193 2.0 3.0 0.00 0.01 0.00 94 1012.8
20260510020359 53 193 1.0 3.0 0.00 0.01 0.00 94 1012.9
20260510020259 53 193 1.0 3.0 0.00 0.01 0.00 94 1013.0
20260510020202 53 193 2.0 3.0 0.00 0.01 0.00 94 1013.0
20260510020114 53 193 2.0 3.0 0.00 0.01 0.00 94 1013.0
20260510020003 53 193 2.0 3.0 0.00 0.01 0.00 94 1013.0
20260510015902 53 193 2.0 4.0 0.00 0.01 0.00 94 1013.0
20260510015759 53 193 3.0 4.0 0.00 0.01 0.00 94 1013.0
20260510015659 53 193 3.0 5.0 0.00 0.01 0.00 94 1013.0
20260510015602 53 193 3.0 6.0 0.00 0.01 0.00 94 1013.0
20260510015459 53 193 3.0 6.0 0.00 0.01 0.00 94 1013.0
20260510015159 53 193 3.0 6.0 0.00 0.01 0.00 94 1013.0
20260510015059 53 193 3.0 6.0 0.00 0.01 0.00 94 1013.0
20260510015002 53 193 3.0 6.0 0.00 0.01 0.00 94 1013.0
20260510014900 53 193 4.0 6.0 0.00 0.01 0.00 94 1013.0
20260510014759 53 193 4.0 6.0 0.00 0.01 0.00 94 1013.0
20260510014703 53 193 4.0 6.0 0.00 0.01 0.00 94 1013.1
20260510014559 53 193 5.0 6.0 0.00 0.01 0.00 94 1013.1
20260510014459 53 196 5.0 5.0 0.00 0.01 0.00 94 1013.1
20260510014403 53 217 4.0 5.0 0.00 0.01 0.00 94 1013.1
20260510014259 53 217 3.0 5.0 0.00 0.01 0.00 94 1013.1
20260510014159 53 217 4.0 5.0 0.00 0.01 0.00 94 1013.1
20260510014102 53 231 5.0 5.0 0.00 0.01 0.00 94 1013.1
20260510013959 53 231 4.0 4.0 0.00 0.01 0.00 94 1013.1
20260510013559 53 270 2.0 3.0 0.00 0.01 0.00 93 1013.1
20260510013502 53 270 3.0 3.0 0.00 0.01 0.00 93 1013.1
20260510013359 53 270 3.0 3.0 0.00 0.01 0.00 94 1013.1
20260510013259 53 270 3.0 3.0 0.00 0.01 0.00 94 1013.1
20260510013202 53 270 3.0 3.0 0.00 0.01 0.00 94 1013.1
20260510013059 53 349 2.0 2.0 0.00 0.01 0.00 94 1013.1
20260510013000 53 349 1.0 2.0 0.00 0.01 0.00 94 1013.1
20260510012902 53 349 1.0 3.0 0.00 0.01 0.00 94 1013.0
20260510012759 53 349 1.0 3.0 0.00 0.01 0.00 94 1013.1
20260510012659 53 349 1.0 3.0 0.00 0.01 0.00 93 1013.0
20260510012602 54 349 1.0 3.0 0.00 0.01 0.00 93 1013.0
20260510012500 54 349 1.0 3.0 0.00 0.01 0.00 94 1013.1
20260510012359 54 349 2.0 3.0 0.00 0.01 0.00 94 1013.1
20260510012159 54 349 1.0 3.0 0.00 0.01 0.00 94 1013.0
20260510012059 54 349 2.0 3.0 0.00 0.01 0.00 94 1013.1
20260510011900 54 349 1.0 3.0 0.00 0.01 0.00 94 1013.1
20260510011759 54 349 3.0 3.0 0.00 0.01 0.00 94 1013.1
20260510011702 54 208 3.0 3.0 0.00 0.01 0.00 94 1013.1
20260510011559 54 208 3.0 3.0 0.00 0.01 0.00 93 1013.1
20260510011459 54 208 2.0 3.0 0.00 0.01 0.00 93 1013.1
20260510011101 54 208 2.0 3.0 0.00 0.01 0.00 94 1013.1
20260510011000 54 208 2.0 3.0 0.00 0.01 0.00 94 1013.2
20260510010859 54 208 2.0 3.0 0.00 0.01 0.00 94 1013.2
20260510010802 54 208 2.0 3.0 0.00 0.01 0.00 94 1013.2
20260510010659 54 208 2.0 3.0 0.00 0.01 0.00 94 1013.2
20260510010502 53 208 3.0 3.0 0.00 0.01 0.00 93 1013.2
20260510010359 53 208 2.0 3.0 0.00 0.01 0.00 93 1013.2
20260510010259 53 208 2.0 3.0 0.00 0.01 0.00 93 1013.3
20260510010202 54 208 2.0 2.0 0.00 0.01 0.00 93 1013.3
20260510010059 54 208 1.0 2.0 0.00 0.01 0.00 93 1013.3
20260510010005 54 208 0.0 2.0 0.00 0.01 0.00 93 1013.3
20260510005903 54 208 0.0 2.0 0.00 0.01 0.00 93 1013.3
20260510005659 54 208 0.0 3.0 0.00 0.01 0.00 93 1013.3
20260510005602 54 208 0.0 3.0 0.00 0.01 0.00 93 1013.4
20260510005500 54 208 0.0 3.0 0.00 0.01 0.00 93 1013.4
20260510005359 54 208 0.0 3.0 0.00 0.01 0.00 93 1013.4
20260510005159 54 208 1.0 3.0 0.00 0.01 0.00 94 1013.3
20260510005102 54 208 1.0 3.0 0.00 0.01 0.00 94 1013.4
20260510005004 54 208 1.0 3.0 0.00 0.01 0.00 94 1013.4
20260510004800 54 208 2.0 3.0 0.00 0.01 0.00 94 1013.4
20260510004702 54 208 2.0 3.0 0.00 0.01 0.00 94 1013.4
20260510004559 54 208 2.0 3.0 0.00 0.01 0.00 93 1013.4
20260510004503 54 208 3.0 3.0 0.00 0.01 0.00 93 1013.4
20260510004259 54 185 2.0 2.0 0.00 0.01 0.00 93 1013.4
20260510004159 54 185 0.0 2.0 0.00 0.01 0.00 93 1013.4
20260510004102 54 185 0.0 2.0 0.00 0.01 0.00 93 1013.4
20260510004000 54 185 0.0 2.0 0.00 0.01 0.00 93 1013.4
20260510003859 54 185 0.0 2.0 0.00 0.01 0.00 93 1013.4
20260510003659 54 185 0.0 2.0 0.00 0.01 0.00 94 1013.4
20260510003600 54 185 0.0 2.0 0.00 0.01 0.00 93 1013.5
20260510003503 54 185 0.0 3.0 0.00 0.01 0.00 94 1013.5
20260510003359 54 185 1.0 3.0 0.00 0.01 0.00 94 1013.5
20260510003302 54 185 1.0 3.0 0.00 0.01 0.00 93 1013.5
20260510003202 54 185 0.0 3.0 0.00 0.01 0.00 93 1013.5
20260510003100 54 185 0.0 3.0 0.00 0.01 0.00 93 1013.5
20260510002903 54 185 0.0 3.0 0.00 0.01 0.00 93 1013.6
20260510002759 54 185 1.0 3.0 0.00 0.01 0.00 93 1013.6
20260510002659 54 185 1.0 3.0 0.00 0.01 0.00 93 1013.6
20260510002601 54 185 1.0 3.0 0.00 0.01 0.00 93 1013.6
20260510002359 54 185 3.0 3.0 0.00 0.01 0.00 93 1013.7
20260510002306 54 185 3.0 3.0 0.00 0.01 0.00 93 1013.7
20260510002201 54 185 0.0 3.0 0.00 0.01 0.00 93 1013.7
20260510002059 54 185 1.0 3.0 0.00 0.01 0.00 93 1013.7
20260510002003 54 185 2.0 3.0 0.00 0.01 0.00 93 1013.7
20260510001759 54 185 2.0 3.0 0.00 0.01 0.00 93 1013.7
20260510001705 54 185 1.0 3.0 0.00 0.01 0.00 93 1013.7
20260510001501 54 185 1.0 3.0 0.00 0.01 0.00 93 1013.7
20260510001414 54 185 1.0 3.0 0.00 0.01 0.00 93 1013.7
20260510001302 54 185 2.0 3.0 0.00 0.01 0.00 93 1013.8
20260510001159 54 185 1.0 2.0 0.00 0.01 0.00 93 1013.8
20260510001102 54 185 0.0 3.0 0.00 0.01 0.00 93 1013.7
20260510001003 54 185 0.0 3.0 0.00 0.01 0.00 93 1013.7
20260510000900 54 185 1.0 3.0 0.00 0.01 0.00 93 1013.7
20260510000801 54 185 2.0 3.0 0.00 0.01 0.00 93 1013.7
20260510000702 54 185 1.0 3.0 0.00 0.01 0.00 93 1013.7
20260510000559 54 185 1.0 3.0 0.00 0.01 0.00 93 1013.7
20260510000502 54 185 2.0 3.0 0.00 0.01 0.00 93 1013.7
20260510000403 54 185 2.0 3.0 0.00 0.01 0.00 93 1013.7
20260510000259 54 185 2.0 3.0 0.00 0.01 0.00 93 1013.7
20260510000204 54 185 2.0 3.0 0.00 0.01 0.00 93 1013.7
20260510000010 54 185 2.0 3.0 0.00 0.01 0.00 93 1013.7
20260509235905 54 185 1.0 3.0 0.00 0.01 0.00 93 1013.6
20260509235800 54 185 1.0 3.0 0.00 0.01 0.00 93 1013.7
20260509235704 54 185 1.0 3.0 0.00 0.01 0.00 93 1013.7
20260509235602 54 185 1.0 3.0 0.00 0.01 0.00 93 1013.8
20260509235459 54 185 1.0 4.0 0.00 0.01 0.00 93 1013.8
20260509235401 54 185 2.0 5.0 0.00 0.01 0.00 93 1013.7
20260509235159 54 185 1.0 5.0 0.00 0.01 0.00 93 1013.8
20260509235101 54 185 2.0 5.0 0.00 0.01 0.00 93 1013.8
20260509234900 54 185 2.0 5.0 0.00 0.01 0.00 93 1013.8
20260509234801 54 185 3.0 5.0 0.00 0.01 0.00 93 1013.8
20260509234702 54 185 2.0 5.0 0.00 0.01 0.00 93 1013.8
20260509234600 54 185 2.0 5.0 0.00 0.01 0.00 93 1013.8
20260509234500 54 185 3.0 5.0 0.00 0.01 0.00 93 1013.8
20260509234412 54 185 4.0 5.0 0.00 0.01 0.00 93 1013.8
20260509234259 54 186 3.0 5.0 0.00 0.01 0.00 93 1013.8
20260509234159 54 198 4.0 4.0 0.00 0.01 0.00 93 1013.8
20260509234104 54 198 3.0 4.0 0.00 0.01 0.00 93 1013.8
20260509234000 54 198 2.0 3.0 0.00 0.01 0.00 93 1013.9
20260509233900 54 198 2.0 3.0 0.00 0.01 0.00 92 1013.8
20260509233802 54 198 2.0 3.0 0.00 0.01 0.00 92 1013.8
20260509233700 54 198 2.0 2.0 0.00 0.01 0.00 92 1013.8
20260509233559 54 198 1.0 2.0 0.00 0.01 0.00 92 1013.7
20260509233519 54 198 0.0 1.0 0.00 0.01 0.00 92 1013.7
20260509233259 54 198 1.0 1.0 0.00 0.01 0.00 92 1013.7
20260509233206 54 198 1.0 2.0 0.00 0.01 0.00 92 1013.7
20260509233059 54 198 0.0 2.0 0.00 0.01 0.00 92 1013.8
20260509233000 54 198 1.0 3.0 0.00 0.01 0.00 92 1013.8
20260509232902 54 198 1.0 3.0 0.00 0.01 0.00 92 1013.8
20260509232759 54 198 0.0 3.0 0.00 0.01 0.00 92 1013.8
20260509232659 54 198 1.0 3.0 0.00 0.01 0.00 92 1013.8
20260509232602 54 198 1.0 3.0 0.00 0.01 0.00 92 1013.7
20260509232459 54 198 1.0 3.0 0.00 0.01 0.00 92 1013.7
20260509232403 54 198 0.0 3.0 0.00 0.01 0.00 92 1013.7
20260509232301 54 198 1.0 3.0 0.00 0.01 0.00 92 1013.8
20260509232159 54 198 1.0 3.0 0.00 0.01 0.00 92 1013.8
20260509232100 54 198 2.0 3.0 0.00 0.01 0.00 92 1013.8
20260509231800 54 198 1.0 3.0 0.00 0.01 0.00 92 1013.8
20260509231701 54 198 1.0 3.0 0.00 0.01 0.00 92 1013.8
20260509231600 54 198 1.0 3.0 0.00 0.01 0.00 92 1013.9
20260509231459 54 198 1.0 3.0 0.00 0.01 0.00 92 1013.8
20260509231402 54 198 2.0 3.0 0.00 0.01 0.00 92 1013.8
20260509231310 54 198 1.0 3.0 0.00 0.01 0.00 92 1013.8
20260509231159 54 198 2.0 3.0 0.00 0.01 0.00 92 1013.9
20260509231103 54 198 2.0 3.0 0.00 0.01 0.00 92 1013.9
20260509231000 54 198 1.0 3.0 0.00 0.01 0.00 92 1013.9
20260509230859 54 198 0.0 3.0 0.00 0.01 0.00 92 1014.0
20260509230802 54 198 1.0 3.0 0.00 0.01 0.00 92 1013.9
20260509230559 54 198 0.0 3.0 0.00 0.01 0.00 92 1014.0
20260509230502 54 198 1.0 3.0 0.00 0.01 0.00 92 1014.0
20260509230400 54 198 2.0 3.0 0.00 0.01 0.00 92 1014.0
20260509230259 54 198 2.0 2.0 0.00 0.01 0.00 92 1014.0
20260509230202 54 198 0.0 2.0 0.00 0.01 0.00 92 1014.0
20260509230059 54 198 0.0 2.0 0.00 0.01 0.00 92 1014.0
20260509230004 54 198 0.0 2.0 0.00 0.01 0.00 92 1014.0
20260509225901 54 198 0.0 2.0 0.00 0.01 0.00 92 1014.0
20260509225659 54 198 2.0 2.0 0.00 0.01 0.00 92 1014.0
20260509225602 54 198 1.0 3.0 0.00 0.01 0.00 92 1014.0
20260509225459 54 198 1.0 3.0 0.00 0.01 0.00 92 1014.0
20260509225359 54 198 2.0 3.0 0.00 0.01 0.00 92 1014.0
20260509225159 54 198 2.0 3.0 0.00 0.01 0.00 92 1014.0
20260509225059 54 198 1.0 3.0 0.00 0.01 0.00 92 1014.0
20260509224859 54 198 1.0 3.0 0.00 0.01 0.00 91 1014.1
20260509224759 54 198 2.0 3.0 0.00 0.01 0.00 91 1014.0
20260509224702 54 198 2.0 4.0 0.00 0.01 0.00 91 1014.0
20260509224559 54 198 2.0 4.0 0.00 0.01 0.00 91 1013.9
20260509224500 54 198 2.0 4.0 0.00 0.01 0.00 91 1014.0
20260509224300 54 198 1.0 5.0 0.00 0.01 0.00 91 1013.9
20260509224200 54 198 0.0 5.0 0.00 0.01 0.00 91 1013.9
20260509224101 54 198 0.0 5.0 0.00 0.01 0.00 91 1013.8
20260509224000 54 198 1.0 5.0 0.00 0.01 0.00 91 1013.9
20260509223806 54 198 2.0 5.0 0.00 0.01 0.00 91 1013.9
20260509223559 54 198 4.0 5.0 0.00 0.01 0.00 91 1014.0
20260509223502 54 198 4.0 5.0 0.00 0.01 0.00 91 1013.9
20260509223359 54 198 4.0 5.0 0.00 0.01 0.00 91 1013.9
20260509223259 54 198 5.0 5.0 0.00 0.01 0.00 91 1014.0
20260509223202 54 199 5.0 5.0 0.00 0.01 0.00 91 1013.9
20260509223059 54 199 4.0 5.0 0.00 0.01 0.00 91 1013.9
20260509222902 54 199 5.0 5.0 0.00 0.01 0.00 91 1013.9
20260509222800 54 205 5.0 5.0 0.00 0.01 0.00 91 1013.9
20260509222659 54 205 5.0 5.0 0.00 0.01 0.00 91 1013.9
20260509222500 54 199 4.0 5.0 0.00 0.01 0.00 91 1013.9
20260509222400 54 204 4.0 4.0 0.00 0.01 0.00 91 1013.9
20260509222307 54 204 4.0 4.0 0.00 0.01 0.00 91 1013.9
20260509222200 54 204 3.0 4.0 0.00 0.01 0.00 91 1013.9
20260509222004 54 204 2.0 4.0 0.00 0.01 0.00 91 1013.9
20260509221759 54 204 3.0 4.0 0.00 0.01 0.00 91 1013.9
20260509221703 54 204 3.0 4.0 0.00 0.01 0.00 91 1013.9
20260509221559 55 202 3.0 4.0 0.00 0.01 0.00 91 1013.9
20260509221402 55 76 3.0 4.0 0.00 0.01 0.00 90 1013.8
20260509221259 55 76 4.0 4.0 0.00 0.01 0.00 90 1013.8
20260509221204 55 76 4.0 4.0 0.00 0.01 0.00 91 1013.8
20260509221102 55 76 3.0 4.0 0.00 0.01 0.00 91 1013.8
20260509221001 55 76 3.0 4.0 0.00 0.01 0.00 91 1013.8
20260509220859 55 76 1.0 4.0 0.00 0.01 0.00 90 1013.9
20260509220802 55 76 1.0 4.0 0.00 0.01 0.00 90 1013.9
20260509220659 55 76 2.0 4.0 0.00 0.01 0.00 90 1013.9
20260509220600 55 76 1.0 4.0 0.00 0.01 0.00 90 1013.9
20260509220506 55 76 2.0 4.0 0.00 0.01 0.00 90 1013.9
20260509220259 55 76 2.0 4.0 0.00 0.01 0.00 90 1013.9
20260509220202 55 76 2.0 4.0 0.00 0.01 0.00 90 1013.9
20260509220139 55 76 3.0 4.0 0.00 0.01 0.00 90 1013.9
20260509215802 55 76 2.0 3.0 0.00 0.01 0.01 90 1013.9
20260509215701 55 76 2.0 3.0 0.00 0.01 0.01 90 1013.9
20260509215504 55 76 3.0 3.0 0.00 0.01 0.01 90 1014.0
20260509215400 55 76 3.0 3.0 0.00 0.01 0.01 90 1014.0
20260509215300 55 76 3.0 3.0 0.00 0.01 0.01 90 1014.0
20260509215202 55 76 2.0 4.0 0.00 0.01 0.01 90 1014.0
20260509215100 55 76 2.0 4.0 0.00 0.01 0.01 90 1014.0
20260509215001 55 76 2.0 4.0 0.00 0.01 0.01 90 1014.0
20260509214903 55 76 2.0 4.0 0.00 0.01 0.01 90 1014.0
20260509214605 55 76 2.0 4.0 0.00 0.01 0.01 90 1014.1
20260509214400 55 76 3.0 4.0 0.00 0.01 0.01 90 1014.0
20260509214303 55 76 2.0 4.0 0.00 0.01 0.01 90 1014.0
20260509214201 55 76 4.0 4.0 0.00 0.01 0.01 90 1013.9
20260509214101 55 76 3.0 4.0 0.00 0.01 0.01 90 1013.9
20260509214004 55 76 3.0 4.0 0.00 0.01 0.01 90 1013.9
20260509213901 55 76 3.0 4.0 0.00 0.01 0.01 90 1013.9
20260509213800 55 76 3.0 4.0 0.00 0.01 0.01 90 1013.9
20260509213703 55 76 2.0 4.0 0.00 0.01 0.01 90 1013.9
20260509213601 55 76 2.0 4.0 0.00 0.01 0.01 90 1013.9
20260509213500 55 76 2.0 4.0 0.00 0.01 0.01 90 1013.9
20260509213404 55 76 2.0 4.0 0.00 0.01 0.01 90 1013.9
20260509213304 55 76 2.0 4.0 0.00 0.01 0.01 90 1013.8
20260509213210 55 76 3.0 4.0 0.00 0.01 0.01 90 1013.8
20260509213102 55 76 2.0 3.0 0.00 0.01 0.01 90 1013.9
20260509213000 55 76 2.0 3.0 0.00 0.01 0.01 90 1013.9
20260509212900 55 76 1.0 3.0 0.00 0.01 0.01 90 1013.9
20260509212803 55 76 2.0 3.0 0.00 0.01 0.01 90 1013.8
20260509212600 55 76 1.0 3.0 0.00 0.01 0.01 90 1013.9
20260509212505 55 76 2.0 3.0 0.00 0.01 0.01 90 1013.9
20260509212400 55 76 1.0 3.0 0.00 0.01 0.01 90 1013.9
20260509212205 55 76 2.0 3.0 0.00 0.01 0.01 90 1013.9
20260509212100 55 76 1.0 3.0 0.00 0.01 0.01 90 1013.9
20260509212006 55 76 2.0 3.0 0.00 0.01 0.01 90 1013.9
20260509211800 55 76 2.0 3.0 0.00 0.01 0.01 90 1013.9
20260509211714 55 76 2.0 3.0 0.00 0.01 0.01 90 1013.9
20260509211604 55 76 1.0 3.0 0.00 0.01 0.01 90 1013.8
20260509211501 55 76 3.0 3.0 0.00 0.01 0.01 90 1013.8
20260509211401 55 76 2.0 3.0 0.00 0.01 0.01 89 1013.9
20260509211302 55 76 1.0 3.0 0.00 0.01 0.01 89 1013.9
20260509211200 55 76 0.0 3.0 0.00 0.01 0.01 89 1013.8
20260509211100 55 76 0.0 3.0 0.00 0.01 0.01 89 1013.8
20260509211006 55 76 0.0 3.0 0.00 0.01 0.01 89 1013.8
20260509210917 55 76 1.0 3.0 0.00 0.01 0.01 89 1013.8
20260509210801 55 76 2.0 3.0 0.00 0.01 0.01 89 1013.9
20260509210704 55 76 2.0 3.0 0.00 0.01 0.01 89 1013.9
20260509210602 55 76 2.0 3.0 0.00 0.01 0.01 89 1013.9
20260509210500 55 76 3.0 3.0 0.00 0.01 0.01 89 1013.9
20260509210404 55 76 2.0 2.0 0.00 0.01 0.01 89 1014.0
20260509210303 55 76 2.0 2.0 0.00 0.01 0.01 89 1014.0
20260509210201 55 76 1.0 2.0 0.00 0.01 0.01 89 1014.0
20260509210008 55 76 1.0 2.0 0.00 0.01 0.01 88 1014.0
20260509205903 55 76 1.0 1.0 0.00 0.01 0.01 88 1014.0
20260509205602 55 76 0.0 1.0 0.00 0.01 0.01 88 1014.0
20260509205504 55 76 0.0 1.0 0.00 0.01 0.01 88 1014.0
20260509205403 55 76 0.0 1.0 0.00 0.01 0.01 88 1014.0
20260509205315 55 76 0.0 1.0 0.00 0.01 0.01 88 1014.0
20260509205101 55 76 0.0 2.0 0.00 0.01 0.01 88 1014.0
20260509205010 56 76 0.0 3.0 0.00 0.01 0.01 88 1014.0
20260509204903 56 76 1.0 3.0 0.00 0.01 0.01 88 1014.1
20260509204702 56 76 1.0 4.0 0.00 0.01 0.01 88 1014.1
20260509204603 56 76 0.0 4.0 0.00 0.01 0.01 88 1014.1
20260509204404 56 76 0.0 4.0 0.00 0.01 0.01 88 1014.1
20260509204300 56 76 0.0 4.0 0.00 0.01 0.01 88 1014.1
20260509204203 56 76 1.0 4.0 0.00 0.01 0.01 87 1014.2
20260509204003 56 76 3.0 4.0 0.00 0.01 0.01 87 1014.2
20260509203903 56 76 3.0 4.0 0.00 0.01 0.01 87 1014.1
20260509203700 56 76 4.0 4.0 0.00 0.01 0.01 87 1014.2
20260509203603 56 76 3.0 4.0 0.00 0.01 0.01 87 1014.2
20260509203502 56 76 2.0 4.0 0.00 0.01 0.01 87 1014.1
20260509203404 56 76 2.0 4.0 0.00 0.01 0.01 87 1014.1
20260509203303 56 76 0.0 4.0 0.00 0.01 0.01 87 1014.1
20260509203203 56 76 1.0 4.0 0.00 0.01 0.01 87 1014.2
20260509203100 56 76 3.0 4.0 0.00 0.01 0.01 87 1014.1
20260509203005 56 76 3.0 4.0 0.00 0.01 0.01 87 1014.1
20260509202902 56 76 3.0 4.0 0.00 0.01 0.01 86 1014.1
20260509202800 56 76 3.0 4.0 0.00 0.01 0.01 86 1014.1
20260509202602 56 76 1.0 3.0 0.00 0.01 0.01 86 1014.1
20260509202500 56 76 2.0 3.0 0.00 0.01 0.01 86 1014.2
20260509202403 56 76 2.0 3.0 0.00 0.01 0.01 86 1014.1
20260509202306 56 76 1.0 3.0 0.00 0.01 0.01 86 1014.2
20260509202200 56 76 3.0 3.0 0.00 0.01 0.01 86 1014.2
20260509202103 56 76 3.0 3.0 0.00 0.01 0.01 86 1014.2
20260509202004 56 76 1.0 2.0 0.00 0.01 0.01 86 1014.2
20260509201900 57 76 2.0 2.0 0.00 0.01 0.01 86 1014.2
20260509201804 57 76 1.0 2.0 0.00 0.01 0.01 85 1014.2
20260509201600 57 76 1.0 2.0 0.00 0.01 0.01 85 1014.2
20260509201504 57 76 1.0 2.0 0.00 0.01 0.01 85 1014.3
20260509201402 57 76 1.0 2.0 0.00 0.01 0.01 85 1014.2
20260509201300 57 76 1.0 2.0 0.00 0.01 0.01 85 1014.2
20260509201215 57 76 0.0 2.0 0.00 0.01 0.01 85 1014.2
20260509201106 57 76 0.0 2.0 0.00 0.01 0.01 84 1014.2
20260509200903 57 76 0.0 2.0 0.00 0.01 0.01 84 1014.3
20260509200803 57 76 1.0 2.0 0.00 0.01 0.01 84 1014.3
20260509200700 57 76 1.0 2.0 0.00 0.01 0.01 84 1014.3
20260509200603 57 76 0.0 2.0 0.00 0.01 0.01 84 1014.2
20260509200503 57 76 0.0 2.0 0.00 0.01 0.01 84 1014.2
20260509200202 57 76 1.0 3.0 0.00 0.01 0.01 83 1014.2
20260509200133 57 76 2.0 3.0 0.00 0.01 0.01 83 1014.2
20260509195800 58 76 0.0 4.0 0.00 0.01 0.01 83 1014.3
20260509195703 58 76 1.0 4.0 0.00 0.01 0.01 83 1014.3
20260509195602 58 76 1.0 4.0 0.00 0.01 0.01 83 1014.3
20260509195501 58 76 0.0 4.0 0.00 0.01 0.01 83 1014.3
20260509195403 58 76 1.0 4.0 0.00 0.01 0.01 83 1014.3
20260509195200 58 76 2.0 4.0 0.00 0.01 0.01 83 1014.2
20260509195103 58 76 3.0 4.0 0.00 0.01 0.01 83 1014.2
20260509195004 58 76 2.0 4.0 0.00 0.01 0.01 83 1014.1
20260509194804 58 76 4.0 4.0 0.00 0.01 0.01 83 1014.1
20260509194601 58 76 3.0 4.0 0.00 0.01 0.01 82 1014.1
20260509194402 58 76 3.0 4.0 0.00 0.01 0.01 82 1014.0
20260509194302 58 76 3.0 4.0 0.00 0.01 0.01 82 1014.0
20260509194204 58 76 3.0 3.0 0.00 0.01 0.01 82 1014.0
20260509194000 59 76 2.0 2.0 0.00 0.01 0.01 81 1013.9
20260509193904 59 76 1.0 2.0 0.00 0.01 0.01 81 1013.9
20260509193802 59 76 1.0 2.0 0.00 0.01 0.01 81 1013.9
20260509193700 59 76 1.0 2.0 0.00 0.01 0.01 81 1013.9
20260509193603 59 76 1.0 2.0 0.00 0.01 0.01 81 1013.8
20260509193502 59 76 2.0 2.0 0.00 0.01 0.01 81 1013.8
20260509193400 59 76 1.0 2.0 0.00 0.01 0.01 81 1013.8
20260509193302 59 76 0.0 2.0 0.00 0.01 0.01 81 1013.8
20260509193203 59 76 0.0 2.0 0.00 0.01 0.01 81 1013.8
20260509193101 59 76 0.0 2.0 0.00 0.01 0.01 81 1013.7
20260509193005 59 76 0.0 2.0 0.00 0.01 0.01 81 1013.7
20260509192902 59 76 0.0 2.0 0.00 0.01 0.01 81 1013.7
20260509192800 59 76 0.0 2.0 0.00 0.01 0.01 81 1013.7
20260509192602 59 76 1.0 2.0 0.00 0.01 0.01 81 1013.7
20260509192500 59 76 1.0 2.0 0.00 0.01 0.01 81 1013.7
20260509192403 59 76 1.0 2.0 0.00 0.01 0.01 80 1013.7
20260509192305 59 76 0.0 2.0 0.00 0.01 0.01 80 1013.6
20260509192201 59 76 0.0 2.0 0.00 0.01 0.01 79 1013.6
20260509192007 59 76 0.0 2.0 0.00 0.01 0.01 79 1013.6
20260509191900 59 76 1.0 2.0 0.00 0.01 0.01 79 1013.6
20260509191812 59 76 1.0 2.0 0.00 0.01 0.01 78 1013.6
20260509191702 60 76 1.0 2.0 0.00 0.01 0.01 78 1013.6
20260509191600 60 76 1.0 2.0 0.00 0.01 0.01 78 1013.5
20260509191402 60 76 1.0 2.0 0.00 0.01 0.01 78 1013.5
20260509191300 60 76 1.0 2.0 0.00 0.01 0.01 77 1013.5
20260509191203 60 76 0.0 2.0 0.00 0.01 0.01 77 1013.5
20260509190905 60 76 0.0 2.0 0.00 0.01 0.01 77 1013.4
20260509190803 60 76 1.0 2.0 0.00 0.01 0.01 77 1013.4
20260509190701 60 76 2.0 2.0 0.00 0.01 0.01 77 1013.5
20260509190503 60 76 2.0 2.0 0.00 0.01 0.01 76 1013.4
20260509190400 60 76 1.0 2.0 0.00 0.01 0.01 76 1013.4
20260509190303 61 76 1.0 2.0 0.00 0.01 0.01 76 1013.4
20260509190202 61 76 0.0 2.0 0.00 0.01 0.01 76 1013.4
20260509190006 61 76 0.0 2.0 0.00 0.01 0.01 76 1013.3
20260509185902 61 76 1.0 2.0 0.00 0.01 0.01 76 1013.3
20260509185602 61 76 0.0 2.0 0.00 0.01 0.01 76 1013.3
20260509185500 61 76 1.0 2.0 0.00 0.01 0.01 75 1013.3
20260509185403 61 76 1.0 2.0 0.00 0.01 0.01 75 1013.3
20260509185306 61 76 2.0 3.0 0.00 0.01 0.01 75 1013.3
20260509185200 61 76 0.0 3.0 0.00 0.01 0.01 74 1013.3
20260509185005 62 76 2.0 3.0 0.00 0.01 0.01 74 1013.3
20260509184900 62 76 0.0 4.0 0.00 0.01 0.01 73 1013.3
20260509184803 62 76 0.0 4.0 0.00 0.01 0.01 72 1013.3
20260509184705 62 76 0.0 4.0 0.00 0.01 0.01 72 1013.3
20260509184600 62 76 1.0 4.0 0.00 0.01 0.01 71 1013.3
20260509184503 62 76 1.0 4.0 0.00 0.01 0.01 71 1013.3
20260509184403 62 76 1.0 4.0 0.00 0.01 0.01 71 1013.3
20260509184300 63 76 1.0 4.0 0.00 0.01 0.01 70 1013.3
20260509184204 63 76 2.0 4.0 0.00 0.01 0.01 69 1013.3
20260509184103 63 76 2.0 4.0 0.00 0.01 0.01 69 1013.3
20260509184001 63 76 3.0 4.0 0.00 0.01 0.01 68 1013.3
20260509183903 63 76 3.0 4.0 0.00 0.01 0.01 68 1013.3
20260509183802 63 84 2.0 5.0 0.00 0.01 0.01 68 1013.3
20260509183706 63 84 3.0 5.0 0.00 0.01 0.01 67 1013.3
20260509183603 64 84 3.0 5.0 0.00 0.01 0.01 67 1013.4
20260509183502 64 84 3.0 5.0 0.00 0.01 0.01 66 1013.3
20260509183400 64 84 5.0 5.0 0.00 0.01 0.01 66 1013.4
20260509183303 64 84 3.0 5.0 0.00 0.01 0.01 66 1013.4
20260509183204 64 84 3.0 5.0 0.00 0.01 0.01 66 1013.4
20260509183104 64 84 3.0 5.0 0.00 0.01 0.01 66 1013.3
20260509183006 64 84 3.0 5.0 0.00 0.01 0.01 66 1013.3
20260509182904 65 84 2.0 5.0 0.00 0.01 0.01 66 1013.4
20260509182801 65 84 3.0 5.0 0.00 0.01 0.01 65 1013.3
20260509182703 65 84 3.0 5.0 0.00 0.01 0.01 65 1013.3
20260509182602 65 84 3.0 5.0 0.00 0.01 0.01 65 1013.4
20260509182501 65 84 5.0 5.0 0.00 0.01 0.01 65 1013.4
20260509182403 65 84 3.0 6.0 0.00 0.01 0.01 65 1013.4
20260509182300 65 84 5.0 6.0 0.00 0.01 0.01 65 1013.4
20260509182200 65 103 3.0 6.0 0.00 0.01 0.01 65 1013.4
20260509182103 65 103 3.0 6.0 0.00 0.01 0.01 65 1013.4
20260509182006 65 103 2.0 6.0 0.00 0.01 0.01 65 1013.4
20260509181900 66 98 2.0 6.0 0.00 0.01 0.01 64 1013.3
20260509181702 66 98 2.0 6.0 0.00 0.01 0.01 64 1013.3
20260509181600 66 97 5.0 6.0 0.00 0.01 0.01 65 1013.3
20260509181504 66 95 3.0 6.0 0.00 0.01 0.01 64 1013.3
20260509181403 66 98 3.0 6.0 0.00 0.01 0.01 64 1013.3
20260509181300 66 100 5.0 6.0 0.00 0.01 0.01 64 1013.3
20260509181207 67 63 2.0 5.0 0.00 0.01 0.01 64 1013.3
20260509180903 67 63 3.0 5.0 0.00 0.01 0.01 64 1013.2
20260509180803 67 63 3.0 5.0 0.00 0.01 0.01 64 1013.2
20260509180700 67 63 2.0 5.0 0.00 0.01 0.01 63 1013.2
20260509180604 67 63 3.0 5.0 0.00 0.01 0.01 63 1013.2
20260509180502 67 63 3.0 5.0 0.00 0.01 0.01 62 1013.2
20260509180400 67 63 2.0 5.0 0.00 0.01 0.01 62 1013.2
20260509180302 67 63 3.0 5.0 0.00 0.01 0.01 62 1013.2
20260509180200 67 63 3.0 5.0 0.00 0.01 0.01 61 1013.2
20260509180122 67 63 2.0 5.0 0.00 0.01 0.01 61 1013.2
20260509180007 67 63 2.0 5.0 0.00 0.01 0.01 60 1013.2
20260509175900 68 63 2.0 5.0 0.00 0.01 0.01 60 1013.2
20260509175802 68 71 4.0 5.0 0.00 0.01 0.01 60 1013.2
20260509175601 68 78 4.0 5.0 0.00 0.01 0.01 60 1013.2
20260509175502 68 78 3.0 5.0 0.00 0.01 0.01 61 1013.2
20260509175404 68 78 3.0 7.0 0.00 0.01 0.01 61 1013.2
20260509175103 68 78 4.0 7.0 0.00 0.01 0.01 62 1013.2
20260509175000 68 78 3.0 7.0 0.00 0.01 0.01 61 1013.2
20260509174902 68 78 3.0 7.0 0.00 0.01 0.01 60 1013.2
20260509174803 68 73 3.0 7.0 0.00 0.01 0.01 60 1013.2
20260509174659 68 73 4.0 7.0 0.00 0.01 0.01 60 1013.2
20260509174503 68 73 5.0 7.0 0.00 0.01 0.01 58 1013.2
20260509174400 68 74 7.0 7.0 0.00 0.01 0.01 59 1013.2
20260509174217 69 62 4.0 7.0 0.00 0.01 0.01 58 1013.2
20260509174111 69 80 5.0 7.0 0.00 0.01 0.01 58 1013.2
20260509174001 69 84 7.0 8.0 0.00 0.01 0.01 58 1013.2
20260509173903 69 78 5.0 9.0 0.00 0.01 0.01 59 1013.2
20260509173803 69 81 3.0 9.0 0.00 0.01 0.01 59 1013.2
20260509173700 69 80 3.0 9.0 0.00 0.01 0.01 59 1013.2
20260509173603 69 71 4.0 9.0 0.00 0.01 0.01 59 1013.1
20260509173503 69 71 4.0 9.0 0.00 0.01 0.01 59 1013.2
20260509173400 69 80 6.0 9.0 0.00 0.01 0.01 59 1013.1
20260509173302 69 82 3.0 9.0 0.00 0.01 0.01 59 1013.2
20260509173206 70 82 3.0 9.0 0.00 0.01 0.01 59 1013.2
20260509173007 70 85 6.0 9.0 0.00 0.01 0.01 58 1013.1
20260509172903 70 70 7.0 9.0 0.00 0.01 0.01 58 1013.2
20260509172800 70 78 5.0 9.0 0.00 0.01 0.01 58 1013.2
20260509172703 70 67 8.0 9.0 0.00 0.01 0.01 58 1013.2
20260509172603 70 72 4.0 9.0 0.00 0.01 0.01 57 1013.2
20260509172502 70 94 6.0 9.0 0.00 0.01 0.01 57 1013.2
20260509172306 71 64 7.0 9.0 0.00 0.01 0.01 57 1013.2
20260509172200 71 66 5.0 9.0 0.00 0.01 0.01 58 1013.2
20260509172104 71 76 3.0 9.0 0.00 0.01 0.01 56 1013.2
20260509171900 71 82 5.0 9.0 0.00 0.01 0.01 56 1013.2
20260509171702 71 57 3.0 9.0 0.00 0.01 0.01 56 1013.2
20260509171600 71 90 8.0 9.0 0.00 0.01 0.01 56 1013.2
20260509171502 71 83 6.0 9.0 0.00 0.01 0.01 56 1013.2
20260509171402 71 82 5.0 9.0 0.00 0.01 0.01 55 1013.1
20260509171300 71 61 3.0 9.0 0.00 0.01 0.01 55 1013.1
20260509171203 71 79 6.0 10.0 0.00 0.01 0.01 55 1013.2
20260509170902 71 56 4.0 10.0 0.00 0.01 0.01 55 1013.1
20260509170802 71 60 5.0 10.0 0.00 0.01 0.01 54 1013.1
20260509170503 72 84 6.0 13.0 0.00 0.01 0.01 54 1013.1
20260509170302 72 76 9.0 13.0 0.00 0.01 0.01 54 1013.1
20260509170100 72 94 5.0 13.0 0.00 0.01 0.01 55 1013.2
20260509170006 72 115 8.0 13.0 0.00 0.01 0.01 55 1013.2
20260509165801 72 86 8.0 13.0 0.00 0.01 0.01 55 1013.2
20260509165702 72 88 9.0 13.0 0.00 0.01 0.01 54 1013.2
20260509165603 72 101 11.0 13.0 0.00 0.01 0.01 53 1013.2
20260509165404 72 96 7.0 13.0 0.00 0.01 0.01 54 1013.2
20260509165306 72 84 11.0 13.0 0.00 0.01 0.01 54 1013.2
20260509165201 72 118 10.0 12.0 0.00 0.01 0.01 53 1013.1
20260509165104 72 90 8.0 12.0 0.00 0.01 0.01 54 1013.1
20260509164900 72 80 8.0 13.0 0.00 0.01 0.01 53 1013.1
20260509164703 72 90 7.0 12.0 0.00 0.01 0.01 53 1013.2
20260509164504 72 81 2.0 13.0 0.00 0.01 0.01 55 1013.2
20260509164202 73 105 2.0 13.0 0.00 0.01 0.01 54 1013.3
20260509164103 73 88 9.0 13.0 0.00 0.01 0.01 54 1013.3
20260509163803 73 92 6.0 13.0 0.00 0.01 0.01 55 1013.4
20260509163702 73 77 5.0 13.0 0.00 0.01 0.01 55 1013.3
20260509163602 73 55 3.0 13.0 0.00 0.01 0.01 54 1013.3
20260509163503 73 42 6.0 13.0 0.00 0.01 0.01 54 1013.3
20260509163405 73 75 10.0 15.0 0.00 0.01 0.01 54 1013.3
20260509163203 73 71 9.0 15.0 0.00 0.01 0.01 54 1013.4
20260509163101 73 76 13.0 15.0 0.00 0.01 0.01 54 1013.4
20260509163004 73 71 8.0 15.0 0.00 0.01 0.01 53 1013.4
20260509162904 73 94 11.0 15.0 0.00 0.01 0.01 54 1013.4
20260509162704 73 80 8.0 15.0 0.00 0.01 0.01 54 1013.4
20260509162606 73 74 11.0 15.0 0.00 0.01 0.01 54 1013.4
20260509162501 73 69 7.0 15.0 0.00 0.01 0.01 55 1013.4
20260509162402 73 81 15.0 15.0 0.00 0.01 0.01 56 1013.4
20260509162306 73 73 9.0 15.0 0.00 0.01 0.01 56 1013.4
20260509162200 73 73 10.0 15.0 0.00 0.01 0.01 55 1013.4
20260509162104 73 74 10.0 15.0 0.00 0.01 0.01 55 1013.4
20260509162005 73 45 7.0 15.0 0.00 0.01 0.01 55 1013.5
20260509161901 73 78 8.0 15.0 0.00 0.01 0.01 54 1013.4
20260509161600 73 75 12.0 15.0 0.00 0.01 0.01 54 1013.5
20260509161501 73 62 10.0 14.0 0.00 0.01 0.01 54 1013.5
20260509161403 73 75 4.0 14.0 0.00 0.01 0.01 54 1013.6
20260509161259 73 57 11.0 14.0 0.00 0.01 0.01 55 1013.5
20260509161203 73 73 5.0 14.0 0.00 0.01 0.01 56 1013.5
20260509161103 73 82 9.0 14.0 0.00 0.01 0.01 54 1013.5
20260509161000 74 34 6.0 14.0 0.00 0.01 0.01 54 1013.5
20260509160901 74 63 9.0 14.0 0.00 0.01 0.01 53 1013.5
20260509160804 74 77 8.0 15.0 0.00 0.01 0.01 53 1013.5
20260509160702 74 80 11.0 16.0 0.00 0.01 0.01 54 1013.6
20260509160605 74 76 12.0 16.0 0.00 0.01 0.01 53 1013.6
20260509160518 74 84 10.0 16.0 0.00 0.01 0.01 55 1013.6
20260509160402 74 95 7.0 16.0 0.00 0.01 0.01 54 1013.6
20260509160302 74 99 13.0 16.0 0.00 0.01 0.01 54 1013.6
20260509160204 74 92 13.0 16.0 0.00 0.01 0.01 53 1013.6
20260509160118 74 101 11.0 16.0 0.00 0.01 0.01 54 1013.6
20260509160005 74 72 12.0 16.0 0.00 0.01 0.01 54 1013.5
20260509155903 74 74 10.0 16.0 0.00 0.01 0.01 56 1013.6
20260509155801 74 74 11.0 16.0 0.00 0.01 0.01 56 1013.6
20260509155702 74 67 11.0 15.0 0.00 0.01 0.01 55 1013.5
20260509155604 74 62 12.0 15.0 0.00 0.01 0.01 56 1013.5
20260509155501 74 79 7.0 15.0 0.00 0.01 0.01 57 1013.6
20260509155306 74 79 10.0 15.0 0.00 0.01 0.01 56 1013.6
20260509155200 74 67 9.0 15.0 0.00 0.01 0.01 56 1013.6
20260509155105 74 69 10.0 15.0 0.00 0.01 0.01 56 1013.6
20260509155006 74 88 10.0 15.0 0.00 0.01 0.01 56 1013.6
20260509154900 74 73 9.0 15.0 0.00 0.01 0.01 56 1013.7
20260509154802 74 74 8.0 15.0 0.00 0.01 0.01 56 1013.7
20260509154702 74 78 13.0 13.0 0.00 0.01 0.01 58 1013.7
20260509154602 74 89 11.0 14.0 0.00 0.01 0.01 58 1013.7
20260509154403 74 46 6.0 13.0 0.00 0.01 0.01 57 1013.7
20260509154301 74 52 11.0 13.0 0.00 0.01 0.01 58 1013.8
20260509154204 74 42 9.0 13.0 0.00 0.01 0.01 57 1013.7
20260509154104 74 28 6.0 14.0 0.00 0.01 0.01 57 1013.7
20260509154003 74 53 5.0 14.0 0.00 0.01 0.01 59 1013.7
20260509153903 74 44 8.0 14.0 0.00 0.01 0.01 58 1013.7
20260509153803 74 57 9.0 14.0 0.00 0.01 0.01 59 1013.7
20260509153700 74 55 5.0 14.0 0.00 0.01 0.01 58 1013.7
20260509153602 74 69 8.0 14.0 0.00 0.01 0.01 59 1013.7
20260509153503 74 85 10.0 13.0 0.00 0.01 0.01 59 1013.7
20260509153400 74 57 4.0 13.0 0.00 0.01 0.01 59 1013.7
20260509153302 74 59 4.0 13.0 0.00 0.01 0.01 59 1013.7
20260509153203 74 72 8.0 13.0 0.00 0.01 0.01 59 1013.7
20260509153059 74 65 11.0 13.0 0.00 0.01 0.01 57 1013.7
20260509153001 74 74 12.0 14.0 0.00 0.01 0.01 57 1013.6
20260509152800 74 46 6.0 14.0 0.00 0.01 0.01 55 1013.7
20260509152700 75 67 8.0 14.0 0.00 0.01 0.01 55 1013.7
20260509152621 75 43 9.0 14.0 0.00 0.01 0.01 55 1013.7
20260509152500 75 360 6.0 14.0 0.00 0.01 0.01 56 1013.6
20260509152410 75 44 7.0 14.0 0.00 0.01 0.01 57 1013.6
20260509152306 75 74 11.0 14.0 0.00 0.01 0.01 56 1013.7
20260509152200 75 78 8.0 14.0 0.00 0.01 0.01 56 1013.7
20260509152101 75 68 12.0 14.0 0.00 0.01 0.01 57 1013.7
20260509151900 75 82 8.0 11.0 0.00 0.01 0.01 57 1013.7
20260509151800 75 55 11.0 11.0 0.00 0.01 0.01 57 1013.7
20260509151703 75 57 7.0 12.0 0.00 0.01 0.01 56 1013.7
20260509151600 75 24 11.0 12.0 0.00 0.01 0.01 55 1013.7
20260509151500 75 15 7.0 12.0 0.00 0.01 0.01 56 1013.8
20260509151402 75 60 4.0 12.0 0.00 0.01 0.01 56 1013.8
20260509151259 75 76 5.0 12.0 0.00 0.01 0.01 55 1013.8
20260509151203 75 94 5.0 12.0 0.00 0.01 0.01 56 1013.9
20260509151103 75 82 9.0 12.0 0.00 0.01 0.01 56 1013.8
20260509151001 75 74 7.0 12.0 0.00 0.01 0.01 56 1013.9
20260509150900 75 69 12.0 12.0 0.00 0.01 0.01 58 1013.9
20260509150804 75 71 8.0 12.0 0.00 0.01 0.01 57 1013.9
20260509150700 75 33 8.0 12.0 0.00 0.01 0.01 56 1013.9
20260509150604 75 31 6.0 12.0 0.00 0.01 0.01 57 1013.9
20260509150503 75 62 5.0 12.0 0.00 0.01 0.01 57 1013.9
20260509150300 75 46 7.0 12.0 0.00 0.01 0.01 53 1013.9
20260509150203 75 69 8.0 12.0 0.00 0.01 0.01 54 1013.9
20260509150100 75 65 9.0 12.0 0.00 0.01 0.01 54 1013.9
20260509150004 75 27 8.0 12.0 0.00 0.01 0.01 54 1013.9
20260509145904 75 55 9.0 13.0 0.00 0.01 0.01 56 1013.9
20260509145800 75 51 6.0 13.0 0.00 0.01 0.01 54 1014.0
20260509145701 76 56 10.0 16.0 0.00 0.01 0.01 56 1014.0
20260509145607 76 64 5.0 16.0 0.00 0.01 0.01 55 1014.0
20260509145501 76 67 9.0 16.0 0.00 0.01 0.01 55 1014.0
20260509145400 76 70 12.0 16.0 0.00 0.01 0.01 56 1014.0
20260509145159 76 75 5.0 16.0 0.00 0.01 0.01 55 1014.1
20260509145100 76 65 10.0 16.0 0.00 0.01 0.01 54 1014.1
20260509145007 76 65 7.0 16.0 0.00 0.01 0.01 54 1014.1
20260509144859 76 51 10.0 16.0 0.00 0.01 0.01 57 1014.1
20260509144759 76 59 12.0 16.0 0.00 0.01 0.01 57 1014.1
20260509144702 76 78 9.0 15.0 0.00 0.01 0.01 54 1014.1
20260509144600 76 42 6.0 15.0 0.00 0.01 0.01 55 1014.1
20260509144500 76 71 9.0 15.0 0.00 0.01 0.01 54 1014.1
20260509144402 76 42 5.0 15.0 0.00 0.01 0.01 54 1014.1
20260509144300 76 37 4.0 15.0 0.00 0.01 0.01 55 1014.1
20260509144201 76 85 5.0 15.0 0.00 0.01 0.01 54 1014.1
20260509144104 76 48 6.0 15.0 0.00 0.01 0.01 56 1014.1
20260509143900 76 92 9.0 15.0 0.00 0.01 0.01 54 1014.1
20260509143803 76 78 12.0 15.0 0.00 0.01 0.01 54 1014.1
20260509143700 76 87 7.0 12.0 0.00 0.01 0.01 55 1014.2
20260509143600 76 91 8.0 12.0 0.00 0.01 0.01 54 1014.2
20260509143506 76 92 7.0 12.0 0.00 0.01 0.01 55 1014.2
20260509143400 76 78 9.0 12.0 0.00 0.01 0.01 53 1014.2
20260509143259 76 83 6.0 12.0 0.00 0.01 0.01 53 1014.2
20260509143204 76 126 5.0 12.0 0.00 0.01 0.01 55 1014.2
20260509143103 76 69 10.0 12.0 0.00 0.01 0.01 55 1014.2
20260509143008 76 51 9.0 10.0 0.00 0.01 0.01 55 1014.2
20260509142902 76 65 8.0 9.0 0.00 0.01 0.01 55 1014.2
20260509142700 76 94 8.0 9.0 0.00 0.01 0.01 52 1014.2
20260509142503 76 86 7.0 9.0 0.00 0.01 0.01 51 1014.2
20260509142400 76 20 7.0 8.0 0.00 0.01 0.01 52 1014.2
20260509142307 76 33 6.0 13.0 0.00 0.01 0.01 49 1014.2
20260509142200 76 63 7.0 13.0 0.00 0.01 0.01 49 1014.2
20260509142101 77 32 5.0 13.0 0.00 0.01 0.01 50 1014.2
20260509142005 77 47 4.0 13.0 0.00 0.01 0.01 50 1014.2
20260509141800 77 30 4.0 13.0 0.00 0.01 0.01 50 1014.3
20260509141702 77 84 1.0 13.0 0.00 0.01 0.01 49 1014.3
20260509141600 77 56 3.0 13.0 0.00 0.01 0.01 52 1014.3
20260509141500 76 91 6.0 13.0 0.00 0.01 0.01 53 1014.3
20260509141423 77 82 6.0 13.0 0.00 0.01 0.01 52 1014.3
20260509141203 77 93 13.0 13.0 0.00 0.01 0.01 52 1014.4
20260509141059 76 61 5.0 11.0 0.00 0.01 0.01 53 1014.4
20260509141001 76 79 7.0 11.0 0.00 0.01 0.01 51 1014.4
20260509140904 76 76 7.0 11.0 0.00 0.01 0.01 50 1014.3
20260509140801 76 44 5.0 11.0 0.00 0.01 0.01 47 1014.4
20260509140603 77 85 9.0 11.0 0.00 0.01 0.01 50 1014.3
20260509140500 77 84 3.0 12.0 0.00 0.01 0.01 49 1014.3
20260509140400 77 65 5.0 12.0 0.00 0.01 0.01 52 1014.3
20260509140304 77 69 9.0 12.0 0.00 0.01 0.01 52 1014.3
20260509140200 77 66 5.0 12.0 0.00 0.01 0.01 50 1014.4
20260509140009 77 71 8.0 14.0 0.00 0.01 0.01 50 1014.4
20260509135800 77 65 11.0 14.0 0.00 0.01 0.01 50 1014.4
20260509135703 77 77 7.0 14.0 0.00 0.01 0.01 50 1014.4
20260509135559 77 57 3.0 14.0 0.00 0.01 0.01 50 1014.3
20260509135500 77 74 10.0 14.0 0.00 0.01 0.01 45 1014.3
20260509135404 77 44 2.0 14.0 0.00 0.01 0.01 46 1014.3
20260509135259 77 64 5.0 14.0 0.00 0.01 0.01 48 1014.3
20260509135203 77 71 9.0 14.0 0.00 0.01 0.01 49 1014.3
20260509135102 77 69 12.0 13.0 0.00 0.01 0.01 48 1014.4
20260509135001 77 61 7.0 8.0 0.00 0.01 0.01 43 1014.4
20260509134900 77 42 5.0 8.0 0.00 0.01 0.01 44 1014.4
20260509134806 77 30 3.0 8.0 0.00 0.01 0.01 43 1014.4
20260509134700 77 101 3.0 8.0 0.00 0.01 0.01 44 1014.4
20260509134600 77 102 2.0 8.0 0.00 0.01 0.01 47 1014.5
20260509134400 77 96 2.0 10.0 0.00 0.01 0.01 48 1014.5
20260509134259 76 76 5.0 11.0 0.00 0.01 0.01 46 1014.5
20260509134203 76 355 3.0 11.0 0.00 0.01 0.01 49 1014.5
20260509134100 76 26 4.0 11.0 0.00 0.01 0.01 47 1014.5
20260509134000 76 5 1.0 11.0 0.00 0.01 0.01 47 1014.5
20260509133904 76 325 3.0 11.0 0.00 0.01 0.01 50 1014.5
20260509133800 76 11 5.0 11.0 0.00 0.01 0.01 44 1014.5
20260509133701 76 30 5.0 11.0 0.00 0.01 0.01 44 1014.5
20260509133605 76 46 5.0 11.0 0.00 0.01 0.01 43 1014.5
20260509133459 76 34 5.0 11.0 0.00 0.01 0.01 43 1014.6
20260509133303 76 17 10.0 11.0 0.00 0.01 0.01 43 1014.5
20260509133200 76 51 5.0 11.0 0.00 0.01 0.01 45 1014.5
20260509133006 77 42 6.0 9.0 0.00 0.01 0.01 43 1014.6
20260509132903 77 39 6.0 8.0 0.00 0.01 0.01 45 1014.5
20260509132800 77 95 5.0 9.0 0.00 0.01 0.01 46 1014.6
20260509132706 77 99 3.0 9.0 0.00 0.01 0.01 43 1014.6
20260509132600 77 62 7.0 9.0 0.00 0.01 0.01 46 1014.6
20260509132501 77 109 8.0 8.0 0.00 0.01 0.01 46 1014.6
20260509132402 77 72 7.0 8.0 0.00 0.01 0.01 46 1014.6
20260509132309 77 45 4.0 8.0 0.00 0.01 0.01 48 1014.6
20260509132221 77 60 2.0 8.0 0.00 0.01 0.01 45 1014.6
20260509132105 77 65 4.0 8.0 0.00 0.01 0.01 45 1014.6
20260509132003 77 65 5.0 8.0 0.00 0.01 0.01 45 1014.6
20260509131806 77 28 4.0 8.0 0.00 0.01 0.01 45 1014.6
20260509131506 76 79 0.0 8.0 0.00 0.01 0.01 42 1014.7
20260509131401 76 79 1.0 8.0 0.00 0.01 0.01 45 1014.7
20260509131300 76 79 1.0 8.0 0.00 0.01 0.01 44 1014.7
20260509131202 76 79 3.0 8.0 0.00 0.01 0.01 43 1014.8
20260509131101 76 82 8.0 8.0 0.00 0.01 0.01 45 1014.8
20260509131002 76 86 7.0 8.0 0.00 0.01 0.01 45 1014.7
20260509130903 76 67 5.0 7.0 0.00 0.01 0.01 47 1014.8
20260509130801 76 32 3.0 7.0 0.00 0.01 0.01 49 1014.8
20260509130700 76 360 1.0 7.0 0.00 0.01 0.01 44 1014.8
20260509130602 76 310 2.0 7.0 0.00 0.01 0.01 49 1014.8
20260509130501 76 342 4.0 7.0 0.00 0.01 0.01 47 1014.8
20260509130400 76 348 2.0 7.0 0.00 0.01 0.01 46 1014.9
20260509130306 76 338 5.0 7.0 0.00 0.01 0.01 44 1014.9
20260509130204 76 10 2.0 7.0 0.00 0.01 0.01 46 1014.8
20260509130100 76 351 3.0 7.0 0.00 0.01 0.01 45 1014.9
20260509130006 76 9 5.0 7.0 0.00 0.01 0.01 42 1014.9
20260509125901 76 43 6.0 7.0 0.00 0.01 0.01 47 1014.9
20260509125800 76 40 5.0 7.0 0.00 0.01 0.01 45 1014.9
20260509125702 76 19 4.0 7.0 0.00 0.01 0.01 46 1014.9
20260509125501 76 36 5.0 10.0 0.00 0.01 0.01 45 1014.9
20260509125404 76 13 5.0 10.0 0.00 0.01 0.01 48 1014.9
20260509125301 76 96 1.0 10.0 0.00 0.01 0.01 51 1014.9
20260509125200 76 75 4.0 10.0 0.00 0.01 0.01 48 1015.0
20260509125103 76 77 2.0 10.0 0.00 0.01 0.01 48 1014.9
20260509125001 76 125 1.0 10.0 0.00 0.01 0.01 50 1014.9
20260509124901 76 90 3.0 10.0 0.00 0.01 0.01 51 1014.9
20260509124803 76 126 3.0 10.0 0.00 0.01 0.01 46 1014.9
20260509124659 76 111 8.0 10.0 0.00 0.01 0.01 42 1014.9
20260509124559 76 40 1.0 10.0 0.00 0.01 0.01 46 1015.0
20260509124503 76 83 6.0 8.0 0.00 0.01 0.01 47 1015.0
20260509124059 76 94 7.0 8.0 0.00 0.01 0.01 51 1014.9
20260509124000 76 61 7.0 8.0 0.00 0.01 0.01 43 1014.9
20260509123800 76 30 3.0 7.0 0.00 0.01 0.01 50 1014.9
20260509123700 76 48 2.0 7.0 0.00 0.01 0.01 50 1014.9
20260509123501 76 69 5.0 10.0 0.00 0.01 0.01 47 1014.9
20260509123400 76 73 2.0 10.0 0.00 0.01 0.01 48 1015.0
20260509123303 76 30 1.0 10.0 0.00 0.01 0.01 49 1015.0
20260509123200 76 76 4.0 10.0 0.00 0.01 0.01 47 1015.0
20260509123005 76 38 4.0 10.0 0.00 0.01 0.01 52 1015.0
20260509122900 76 121 2.0 10.0 0.00 0.01 0.01 50 1015.0
20260509122759 76 124 5.0 10.0 0.00 0.01 0.01 50 1015.0
20260509122702 75 94 6.0 10.0 0.00 0.01 0.01 51 1015.0
20260509122559 75 99 5.0 10.0 0.00 0.01 0.01 53 1015.0
20260509122502 75 73 10.0 10.0 0.00 0.01 0.01 51 1015.0
20260509122403 75 116 4.0 9.0 0.00 0.01 0.01 48 1014.9
20260509122259 75 90 7.0 9.0 0.00 0.01 0.01 48 1015.0
20260509122202 75 69 7.0 9.0 0.00 0.01 0.01 52 1015.0
20260509122104 75 45 5.0 9.0 0.00 0.01 0.01 49 1015.0
20260509122000 75 338 2.0 9.0 0.00 0.01 0.01 47 1015.0
20260509121900 75 327 1.0 9.0 0.00 0.01 0.01 46 1015.1
20260509121803 75 344 3.0 9.0 0.00 0.01 0.01 46 1015.1
20260509121701 75 60 3.0 9.0 0.00 0.01 0.01 46 1015.1
20260509121600 75 25 6.0 9.0 0.00 0.01 0.01 45 1015.2
20260509121504 75 35 6.0 9.0 0.00 0.01 0.01 47 1015.2
20260509121401 75 29 5.0 9.0 0.00 0.01 0.01 47 1015.1
20260509121300 75 40 4.0 10.0 0.00 0.01 0.01 45 1015.2
20260509121203 75 28 4.0 10.0 0.00 0.01 0.01 49 1015.2
20260509121109 75 74 2.0 10.0 0.00 0.01 0.01 46 1015.2
20260509121000 75 74 0.0 10.0 0.00 0.01 0.01 45 1015.2
20260509120902 75 62 4.0 10.0 0.00 0.01 0.01 45 1015.2
20260509120802 76 34 5.0 10.0 0.00 0.01 0.01 44 1015.2
20260509120700 76 38 6.0 10.0 0.00 0.01 0.01 48 1015.2
20260509120503 76 66 7.0 10.0 0.00 0.01 0.01 48 1015.2
20260509120400 76 40 4.0 8.0 0.00 0.01 0.01 50 1015.2
20260509120203 76 72 7.0 7.0 0.00 0.01 0.01 46 1015.3
20260509120122 76 60 4.0 7.0 0.00 0.01 0.01 44 1015.3
20260509120005 76 53 7.0 7.0 0.00 0.01 0.01 44 1015.3
20260509115903 76 90 1.0 5.0 0.00 0.01 0.01 47 1015.3
20260509115800 76 115 4.0 5.0 0.00 0.01 0.01 45 1015.3
20260509115702 76 96 2.0 5.0 0.00 0.01 0.01 45 1015.3
20260509115601 76 96 2.0 5.0 0.00 0.01 0.01 48 1015.3
20260509115500 76 136 1.0 7.0 0.00 0.01 0.01 46 1015.3
20260509115307 76 122 3.0 7.0 0.00 0.01 0.01 45 1015.3
20260509115159 76 29 0.0 7.0 0.00 0.01 0.01 47 1015.3
20260509115102 76 330 1.0 7.0 0.00 0.01 0.01 47 1015.3
20260509115003 76 330 2.0 7.0 0.00 0.01 0.01 49 1015.3
20260509114859 76 319 3.0 7.0 0.00 0.01 0.01 50 1015.4
20260509114803 75 313 4.0 7.0 0.00 0.01 0.01 48 1015.4
20260509114702 75 66 3.0 7.0 0.00 0.01 0.01 51 1015.4
20260509114600 75 104 3.0 7.0 0.00 0.01 0.01 47 1015.4
20260509114503 75 102 2.0 7.0 0.00 0.01 0.01 48 1015.4
20260509114402 75 134 4.0 7.0 0.00 0.01 0.01 48 1015.4
20260509114102 75 84 6.0 7.0 0.00 0.01 0.01 47 1015.4
20260509113903 74 65 2.0 7.0 0.00 0.01 0.01 49 1015.4
20260509113802 74 46 5.0 7.0 0.00 0.01 0.01 49 1015.4
20260509113700 74 57 5.0 8.0 0.00 0.01 0.01 48 1015.4
20260509113602 74 82 7.0 8.0 0.00 0.01 0.01 48 1015.4
20260509113359 74 80 2.0 7.0 0.00 0.01 0.01 46 1015.5
20260509113302 74 80 2.0 7.0 0.00 0.01 0.01 50 1015.5
20260509113202 74 60 5.0 9.0 0.00 0.01 0.01 47 1015.5
20260509113059 74 46 5.0 9.0 0.00 0.01 0.01 47 1015.5
20260509112902 74 47 6.0 9.0 0.00 0.01 0.01 52 1015.5
20260509112759 74 81 3.0 9.0 0.00 0.01 0.01 50 1015.5
20260509112703 74 43 3.0 9.0 0.00 0.01 0.01 46 1015.4
20260509112500 74 32 4.0 9.0 0.00 0.01 0.01 48 1015.4
20260509112200 74 32 5.0 9.0 0.00 0.01 0.01 51 1015.5
20260509112002 74 54 2.0 9.0 0.00 0.01 0.01 52 1015.5
20260509111903 74 45 3.0 9.0 0.00 0.01 0.01 53 1015.5
20260509111802 74 81 6.0 9.0 0.00 0.01 0.01 49 1015.5
20260509111702 74 57 2.0 9.0 0.00 0.01 0.01 50 1015.4
20260509111600 74 28 6.0 9.0 0.00 0.01 0.01 51 1015.5
20260509111505 74 24 3.0 9.0 0.00 0.01 0.01 49 1015.5
20260509111402 74 23 5.0 9.0 0.00 0.01 0.01 48 1015.5
20260509111300 74 32 8.0 9.0 0.00 0.01 0.01 50 1015.4
20260509111203 74 67 3.0 7.0 0.00 0.01 0.01 47 1015.5
20260509111103 74 42 4.0 7.0 0.00 0.01 0.01 49 1015.5
20260509110904 74 59 4.0 9.0 0.00 0.01 0.01 49 1015.5
20260509110803 74 35 3.0 9.0 0.00 0.01 0.01 50 1015.6
20260509110659 74 74 2.0 9.0 0.00 0.01 0.01 50 1015.6
20260509110603 74 74 3.0 9.0 0.00 0.01 0.01 49 1015.6
20260509110501 74 39 2.0 9.0 0.00 0.01 0.01 53 1015.6
20260509110359 74 41 6.0 9.0 0.00 0.01 0.01 53 1015.6
20260509110302 74 79 3.0 9.0 0.00 0.01 0.01 51 1015.6
20260509110202 74 107 3.0 9.0 0.00 0.01 0.01 50 1015.6
20260509110100 74 74 4.0 9.0 0.00 0.01 0.01 53 1015.6
20260509110007 74 62 4.0 9.0 0.00 0.01 0.01 54 1015.6
20260509105902 74 80 5.0 9.0 0.00 0.01 0.01 54 1015.7
20260509105800 74 56 6.0 10.0 0.00 0.01 0.01 55 1015.6
20260509105702 74 88 2.0 10.0 0.00 0.01 0.01 51 1015.7
20260509105602 74 92 6.0 10.0 0.00 0.01 0.01 54 1015.7
20260509105500 74 53 7.0 10.0 0.00 0.01 0.01 52 1015.7
20260509105403 73 34 4.0 10.0 0.00 0.01 0.01 52 1015.6
20260509105306 74 53 4.0 10.0 0.00 0.01 0.01 54 1015.7
20260509105002 74 15 5.0 10.0 0.00 0.01 0.01 50 1015.7
20260509104900 74 5 6.0 10.0 0.00 0.01 0.01 52 1015.7
20260509104803 74 27 5.0 8.0 0.00 0.01 0.01 54 1015.7
20260509104701 74 28 3.0 8.0 0.00 0.01 0.01 50 1015.7
20260509104503 74 360 1.0 8.0 0.00 0.01 0.01 50 1015.7
20260509104401 74 11 1.0 8.0 0.00 0.01 0.01 53 1015.7
20260509104301 74 11 1.0 8.0 0.00 0.01 0.01 50 1015.7
20260509104000 74 88 3.0 8.0 0.00 0.01 0.01 48 1015.8
20260509103902 74 56 6.0 8.0 0.00 0.01 0.01 48 1015.8
20260509103802 74 10 3.0 9.0 0.00 0.01 0.01 50 1015.8
20260509103659 74 24 5.0 9.0 0.00 0.01 0.01 56 1015.8
20260509103602 74 14 3.0 9.0 0.00 0.01 0.01 53 1015.8
20260509103359 74 335 2.0 9.0 0.00 0.01 0.01 52 1015.8
20260509103303 74 22 4.0 9.0 0.00 0.01 0.01 49 1015.8
20260509103202 74 333 2.0 9.0 0.00 0.01 0.01 50 1015.8
20260509103100 74 355 3.0 9.0 0.00 0.01 0.01 52 1015.8
20260509103004 74 5 7.0 9.0 0.00 0.01 0.01 56 1015.8
20260509102902 74 355 8.0 9.0 0.00 0.01 0.01 50 1015.8
20260509102800 74 350 5.0 8.0 0.00 0.01 0.01 54 1015.8
20260509102703 74 44 6.0 7.0 0.00 0.01 0.01 52 1015.9
20260509102505 74 350 2.0 6.0 0.00 0.01 0.01 51 1015.9
20260509102402 74 43 4.0 6.0 0.00 0.01 0.01 50 1015.9
20260509102305 74 78 3.0 6.0 0.00 0.01 0.01 50 1015.9
20260509102102 74 9 2.0 8.0 0.00 0.01 0.01 49 1015.9
20260509102002 74 9 1.0 8.0 0.00 0.01 0.01 49 1015.9
20260509101802 74 336 4.0 8.0 0.00 0.01 0.01 54 1015.9
20260509101701 74 327 3.0 8.0 0.00 0.01 0.01 53 1015.9
20260509101600 74 335 5.0 8.0 0.00 0.01 0.01 57 1015.9
20260509101503 74 302 5.0 8.0 0.00 0.01 0.01 57 1015.9
20260509101402 73 355 5.0 8.0 0.00 0.01 0.01 57 1015.9
20260509101203 73 10 6.0 8.0 0.00 0.01 0.01 50 1015.9
20260509101000 73 30 3.0 7.0 0.00 0.01 0.01 52 1015.9
20260509100801 73 42 4.0 7.0 0.00 0.01 0.01 47 1016.0
20260509100700 73 71 2.0 4.0 0.00 0.01 0.01 47 1016.0
20260509100603 73 209 1.0 4.0 0.00 0.01 0.01 46 1016.0
20260509100502 73 209 1.0 4.0 0.00 0.01 0.01 42 1016.0
20260509100302 73 208 1.0 4.0 0.00 0.01 0.01 40 1016.0
20260509100201 73 152 2.0 5.0 0.00 0.01 0.01 47 1016.0
20260509100128 73 152 1.0 5.0 0.00 0.01 0.01 47 1016.0
20260509095902 73 279 1.0 5.0 0.00 0.01 0.01 46 1016.1
20260509095759 73 279 2.0 5.0 0.00 0.01 0.01 45 1016.0
20260509095702 73 268 4.0 5.0 0.00 0.01 0.01 46 1016.0
20260509095402 73 22 0.0 5.0 0.00 0.01 0.01 49 1016.1
20260509095200 73 348 5.0 5.0 0.00 0.01 0.01 49 1016.0
20260509095102 73 298 2.0 4.0 0.00 0.01 0.01 47 1016.1
20260509095003 73 286 4.0 4.0 0.00 0.01 0.01 50 1016.1
20260509094802 73 336 4.0 4.0 0.00 0.01 0.01 51 1016.1
20260509094702 73 5 4.0 4.0 0.00 0.01 0.01 51 1016.1
20260509094600 73 295 1.0 3.0 0.00 0.01 0.01 50 1016.1
20260509094402 73 33 1.0 5.0 0.00 0.01 0.01 52 1016.1
20260509094259 72 33 1.0 5.0 0.00 0.01 0.01 52 1016.1
20260509093904 72 33 0.0 6.0 0.00 0.01 0.01 55 1016.2
20260509093802 72 33 0.0 6.0 0.00 0.01 0.01 57 1016.2
20260509093602 72 33 2.0 6.0 0.00 0.01 0.01 53 1016.2
20260509093501 72 33 3.0 6.0 0.00 0.01 0.01 54 1016.1
20260509093359 72 24 4.0 6.0 0.00 0.01 0.01 53 1016.2
20260509093206 72 34 4.0 6.0 0.00 0.01 0.01 53 1016.1
20260509093102 72 5 5.0 6.0 0.00 0.01 0.01 54 1016.1
20260509093006 72 19 4.0 6.0 0.00 0.01 0.01 54 1016.1
20260509092904 72 347 3.0 5.0 0.00 0.01 0.01 54 1016.2
20260509092759 72 33 3.0 5.0 0.00 0.01 0.01 54 1016.2
20260509092704 72 344 1.0 6.0 0.00 0.01 0.01 54 1016.2
20260509092601 72 327 1.0 6.0 0.00 0.01 0.01 57 1016.2
20260509092501 72 351 2.0 6.0 0.00 0.01 0.01 56 1016.2
20260509092402 72 326 2.0 6.0 0.00 0.01 0.01 56 1016.2
20260509092305 72 323 2.0 6.0 0.00 0.01 0.01 54 1016.2
20260509092200 72 323 1.0 6.0 0.00 0.01 0.01 55 1016.2
20260509092104 72 323 1.0 6.0 0.00 0.01 0.01 58 1016.2
20260509092003 72 20 1.0 6.0 0.00 0.01 0.01 58 1016.2
20260509091802 71 355 3.0 6.0 0.00 0.01 0.01 60 1016.2
20260509091702 71 350 3.0 4.0 0.00 0.01 0.01 62 1016.2
20260509091559 71 45 0.0 4.0 0.00 0.01 0.01 62 1016.2
20260509091503 71 19 1.0 4.0 0.00 0.01 0.01 64 1016.2
20260509091401 71 86 1.0 5.0 0.00 0.01 0.01 61 1016.2
20260509091259 71 71 3.0 6.0 0.00 0.01 0.01 57 1016.2
20260509091202 71 157 1.0 6.0 0.00 0.01 0.01 57 1016.2
20260509091101 71 157 1.0 6.0 0.00 0.01 0.01 57 1016.2
20260509091000 71 317 0.0 6.0 0.00 0.01 0.01 59 1016.1
20260509090902 71 317 0.0 6.0 0.00 0.01 0.01 57 1016.2
20260509090801 71 317 0.0 6.0 0.00 0.01 0.01 59 1016.2